Wetterdaten: Dienstag, 26.06.2018
Datum Zeit Temp. Aussen Temp. o. S. +5cm Feuchte Auss Luftdruck Regen Sonnenschein Regendauer Solar Windben Empfang
26.06.2018 00:00 16,5 C 15,0 C 15,6 C 80 % 1022,6 hPa 0,0 l/m 0 min 0 min 0 W/m 6,8 km/h (2 Bft) 100,00 %
26.06.2018 00:02 16,4 C 15,0 C 15,0 C 81 % 1022,6 hPa 0,0 l/m 0 min 0 min 0 W/m 4,5 km/h (1 Bft) 97,50 %
26.06.2018 00:04 16,4 C 15,0 C 15,0 C 81 % 1022,6 hPa 0,0 l/m 0 min 0 min 0 W/m 2,3 km/h (1 Bft) 100,00 %
26.06.2018 00:08 16,3 C 15,0 C 15,0 C 81 % 1022,6 hPa 0,0 l/m 0 min 0 min 0 W/m 4,5 km/h (1 Bft) 98,96 %
26.06.2018 00:10 16,3 C 15,0 C 15,0 C 81 % 1022,7 hPa 0,0 l/m 0 min 0 min 0 W/m 9,0 km/h (2 Bft) 100,00 %
26.06.2018 00:12 16,3 C 15,0 C 15,0 C 82 % 1022,7 hPa 0,0 l/m 0 min 0 min 0 W/m 2,3 km/h (1 Bft) 100,00 %
26.06.2018 00:14 16,2 C 15,0 C 15,0 C 82 % 1022,7 hPa 0,0 l/m 0 min 0 min 0 W/m 0,0 km/h (0 Bft) 100,00 %
26.06.2018 00:16 16,2 C 15,0 C 15,0 C 82 % 1022,7 hPa 0,0 l/m 0 min 0 min 0 W/m 4,5 km/h (1 Bft) 98,31 %
26.06.2018 00:18 16,2 C 14,4 C 15,0 C 82 % 1022,7 hPa 0,0 l/m 0 min 0 min 0 W/m 4,5 km/h (1 Bft) 100,00 %
26.06.2018 00:20 16,1 C 14,4 C 15,0 C 82 % 1022,7 hPa 0,0 l/m 0 min 0 min 0 W/m 2,3 km/h (1 Bft) 100,00 %
26.06.2018 00:22 16,1 C 14,4 C 15,0 C 83 % 1022,7 hPa 0,0 l/m 0 min 0 min 0 W/m 6,8 km/h (2 Bft) 100,00 %
26.06.2018 00:24 16,1 C 14,4 C 15,0 C 83 % 1022,7 hPa 0,0 l/m 0 min 0 min 0 W/m 4,5 km/h (1 Bft) 100,00 %
26.06.2018 00:26 16,1 C 15,0 C 15,0 C 83 % 1022,7 hPa 0,0 l/m 0 min 0 min 0 W/m 9,0 km/h (2 Bft) 100,00 %
26.06.2018 00:28 16,0 C 14,4 C 15,0 C 83 % 1022,7 hPa 0,0 l/m 0 min 0 min 0 W/m 6,8 km/h (2 Bft) 100,00 %
26.06.2018 00:30 16,0 C 14,4 C 15,0 C 83 % 1022,8 hPa 0,0 l/m 0 min 0 min 0 W/m 0,0 km/h (0 Bft) 97,83 %
26.06.2018 00:32 15,9 C 14,4 C 15,0 C 83 % 1022,8 hPa 0,0 l/m 0 min 0 min 0 W/m 6,8 km/h (2 Bft) 100,00 %
26.06.2018 00:34 15,9 C 14,4 C 15,0 C 84 % 1022,8 hPa 0,0 l/m 0 min 0 min 0 W/m 0,0 km/h (0 Bft) 100,00 %
26.06.2018 00:36 15,9 C 14,4 C 15,0 C 83 % 1022,8 hPa 0,0 l/m 0 min 0 min 0 W/m 4,5 km/h (1 Bft) 97,14 %
26.06.2018 00:38 15,8 C 14,4 C 15,0 C 83 % 1022,8 hPa 0,0 l/m 0 min 0 min 0 W/m 2,3 km/h (1 Bft) 100,00 %
26.06.2018 00:40 15,8 C 14,4 C 15,0 C 83 % 1022,8 hPa 0,0 l/m 0 min 0 min 0 W/m 4,5 km/h (1 Bft) 97,87 %
26.06.2018 00:42 15,8 C 14,4 C 14,4 C 84 % 1022,8 hPa 0,0 l/m 0 min 0 min 0 W/m 4,5 km/h (1 Bft) 100,00 %
26.06.2018 00:44 15,8 C 14,4 C 14,4 C 84 % 1022,8 hPa 0,0 l/m 0 min 0 min 0 W/m 2,3 km/h (1 Bft) 100,00 %
26.06.2018 00:46 15,7 C 13,9 C 14,4 C 84 % 1022,7 hPa 0,0 l/m 0 min 0 min 0 W/m 2,3 km/h (1 Bft) 100,00 %
26.06.2018 00:48 15,7 C 13,9 C 14,4 C 84 % 1022,8 hPa 0,0 l/m 0 min 0 min 0 W/m 6,8 km/h (2 Bft) 96,61 %
26.06.2018 00:50 15,7 C 13,9 C 14,4 C 84 % 1022,8 hPa 0,0 l/m 0 min 0 min 0 W/m 2,3 km/h (1 Bft) 97,87 %
26.06.2018 00:52 15,6 C 13,9 C 14,4 C 84 % 1022,7 hPa 0,0 l/m 0 min 0 min 0 W/m 2,3 km/h (1 Bft) 97,83 %
26.06.2018 00:54 15,6 C 13,9 C 14,4 C 84 % 1022,7 hPa 0,0 l/m 0 min 0 min 0 W/m 2,3 km/h (1 Bft) 97,87 %
26.06.2018 00:56 15,6 C 13,9 C 14,4 C 84 % 1022,8 hPa 0,0 l/m 0 min 0 min 0 W/m 6,8 km/h (2 Bft) 97,87 %
26.06.2018 00:58 15,5 C 13,9 C 14,4 C 85 % 1022,8 hPa 0,0 l/m 0 min 0 min 0 W/m 0,0 km/h (0 Bft) 97,87 %
26.06.2018 01:00 15,4 C 13,9 C 14,4 C 85 % 1022,8 hPa 0,0 l/m 0 min 0 min 0 W/m 4,5 km/h (1 Bft) 97,87 %
26.06.2018 01:02 15,4 C 13,9 C 14,4 C 85 % 1022,8 hPa 0,0 l/m 0 min 0 min 0 W/m 4,5 km/h (1 Bft) 97,87 %
26.06.2018 01:04 15,3 C 13,9 C 14,4 C 85 % 1022,8 hPa 0,0 l/m 0 min 0 min 0 W/m 2,3 km/h (1 Bft) 97,87 %
26.06.2018 01:06 15,3 C 13,9 C 14,4 C 85 % 1022,8 hPa 0,0 l/m 0 min 0 min 0 W/m 6,8 km/h (2 Bft) 97,83 %
26.06.2018 01:08 15,3 C 13,9 C 14,4 C 85 % 1022,8 hPa 0,0 l/m 0 min 0 min 0 W/m 4,5 km/h (1 Bft) 97,87 %
26.06.2018 01:10 15,2 C 13,9 C 14,4 C 85 % 1022,8 hPa 0,0 l/m 0 min 0 min 0 W/m 4,5 km/h (1 Bft) 97,87 %
26.06.2018 01:12 15,2 C 13,9 C 13,9 C 85 % 1022,9 hPa 0,0 l/m 0 min 0 min 0 W/m 0,0 km/h (0 Bft) 94,29 %
26.06.2018 01:14 15,2 C 13,9 C 13,9 C 86 % 1022,8 hPa 0,0 l/m 0 min 0 min 0 W/m 0,0 km/h (0 Bft) 94,92 %
26.06.2018 01:16 15,1 C 13,9 C 13,9 C 86 % 1022,8 hPa 0,0 l/m 0 min 0 min 0 W/m 2,3 km/h (1 Bft) 97,83 %
26.06.2018 01:18 15,1 C 13,9 C 13,9 C 86 % 1022,8 hPa 0,0 l/m 0 min 0 min 0 W/m 9,0 km/h (2 Bft) 100,00 %
26.06.2018 01:20 15,0 C 13,9 C 13,9 C 86 % 1022,8 hPa 0,0 l/m 0 min 0 min 0 W/m 6,8 km/h (2 Bft) 96,55 %
26.06.2018 01:22 15,0 C 13,9 C 13,9 C 86 % 1022,8 hPa 0,0 l/m 0 min 0 min 0 W/m 9,0 km/h (2 Bft) 97,87 %
26.06.2018 01:24 14,9 C 13,9 C 13,9 C 86 % 1022,7 hPa 0,0 l/m 0 min 0 min 0 W/m 6,8 km/h (2 Bft) 97,14 %
26.06.2018 01:26 14,9 C 13,9 C 13,9 C 86 % 1022,8 hPa 0,0 l/m 0 min 0 min 0 W/m 2,3 km/h (1 Bft) 97,87 %
26.06.2018 01:28 14,9 C 13,9 C 13,9 C 86 % 1022,8 hPa 0,0 l/m 0 min 0 min 0 W/m 6,8 km/h (2 Bft) 97,87 %
26.06.2018 01:30 14,9 C 13,9 C 13,9 C 86 % 1022,8 hPa 0,0 l/m 0 min 0 min 0 W/m 6,8 km/h (2 Bft) 97,83 %
26.06.2018 01:32 14,8 C 13,9 C 13,9 C 86 % 1022,8 hPa 0,0 l/m 0 min 0 min 0 W/m 4,5 km/h (1 Bft) 100,00 %
26.06.2018 01:34 14,8 C 13,9 C 13,9 C 86 % 1022,8 hPa 0,0 l/m 0 min 0 min 0 W/m 4,5 km/h (1 Bft) 97,87 %
26.06.2018 01:38 14,7 C 13,3 C 13,9 C 86 % 1022,7 hPa 0,0 l/m 0 min 0 min 0 W/m 4,5 km/h (1 Bft) 96,81 %
26.06.2018 01:40 14,7 C 13,3 C 13,9 C 87 % 1022,7 hPa 0,0 l/m 0 min 0 min 0 W/m 2,3 km/h (1 Bft) 97,87 %
26.06.2018 01:42 14,7 C 13,3 C 13,9 C 87 % 1022,7 hPa 0,0 l/m 0 min 0 min 0 W/m 0,0 km/h (0 Bft) 97,83 %
26.06.2018 01:44 14,7 C 13,3 C 13,9 C 87 % 1022,7 hPa 0,0 l/m 0 min 0 min 0 W/m 0,0 km/h (0 Bft) 97,87 %
26.06.2018 01:46 14,6 C 13,3 C 13,9 C 87 % 1022,8 hPa 0,0 l/m 0 min 0 min 0 W/m 9,0 km/h (2 Bft) 95,74 %
26.06.2018 01:48 14,6 C 13,3 C 13,9 C 87 % 1022,7 hPa 0,0 l/m 0 min 0 min 0 W/m 2,3 km/h (1 Bft) 97,87 %
26.06.2018 01:50 14,6 C 13,3 C 13,9 C 87 % 1022,7 hPa 0,0 l/m 0 min 0 min 0 W/m 0,0 km/h (0 Bft) 97,87 %
26.06.2018 01:52 14,5 C 13,3 C 13,9 C 87 % 1022,8 hPa 0,0 l/m 0 min 0 min 0 W/m 0,0 km/h (0 Bft) 97,87 %
26.06.2018 01:54 14,5 C 13,3 C 13,9 C 87 % 1022,8 hPa 0,0 l/m 0 min 0 min 0 W/m 2,3 km/h (1 Bft) 97,83 %
26.06.2018 01:56 14,4 C 13,3 C 13,9 C 87 % 1022,7 hPa 0,0 l/m 0 min 0 min 0 W/m 0,0 km/h (0 Bft) 97,87 %
26.06.2018 01:58 14,4 C 13,3 C 13,9 C 87 % 1022,7 hPa 0,0 l/m 0 min 0 min 0 W/m 0,0 km/h (0 Bft) 97,87 %
26.06.2018 02:00 14,4 C 13,3 C 13,9 C 87 % 1022,8 hPa 0,0 l/m 0 min 0 min 0 W/m 9,0 km/h (2 Bft) 97,87 %
26.06.2018 02:02 14,3 C 13,3 C 13,9 C 87 % 1022,8 hPa 0,0 l/m 0 min 0 min 0 W/m 2,3 km/h (1 Bft) 95,74 %
26.06.2018 02:04 14,3 C 13,3 C 13,3 C 87 % 1022,8 hPa 0,0 l/m 0 min 0 min 0 W/m 0,0 km/h (0 Bft) 93,62 %
26.06.2018 02:06 14,3 C 13,3 C 13,9 C 87 % 1022,7 hPa 0,0 l/m 0 min 0 min 0 W/m 4,5 km/h (1 Bft) 97,83 %
26.06.2018 02:08 14,2 C 13,3 C 13,9 C 87 % 1022,7 hPa 0,0 l/m 0 min 0 min 0 W/m 0,0 km/h (0 Bft) 97,87 %
26.06.2018 02:10 14,2 C 13,3 C 13,3 C 87 % 1022,8 hPa 0,0 l/m 0 min 0 min 0 W/m 0,0 km/h (0 Bft) 97,87 %
26.06.2018 02:12 14,2 C 13,3 C 13,3 C 87 % 1022,7 hPa 0,0 l/m 0 min 0 min 0 W/m 4,5 km/h (1 Bft) 97,87 %
26.06.2018 02:14 14,2 C 12,8 C 13,3 C 87 % 1022,8 hPa 0,0 l/m 0 min 0 min 0 W/m 2,3 km/h (1 Bft) 97,87 %
26.06.2018 02:16 14,2 C 13,3 C 13,3 C 87 % 1022,7 hPa 0,0 l/m 0 min 0 min 0 W/m 6,8 km/h (2 Bft) 97,87 %
26.06.2018 02:18 14,2 C 13,3 C 13,3 C 87 % 1022,8 hPa 0,0 l/m 0 min 0 min 0 W/m 0,0 km/h (0 Bft) 97,83 %
26.06.2018 02:20 14,2 C 12,8 C 13,3 C 87 % 1022,8 hPa 0,0 l/m 0 min 0 min 0 W/m 6,8 km/h (2 Bft) 95,74 %
26.06.2018 02:22 14,2 C 12,8 C 13,3 C 87 % 1022,7 hPa 0,0 l/m 0 min 0 min 0 W/m 0,0 km/h (0 Bft) 94,92 %
26.06.2018 02:24 14,2 C 12,8 C 13,3 C 88 % 1022,7 hPa 0,0 l/m 0 min 0 min 0 W/m 2,3 km/h (1 Bft) 94,29 %
26.06.2018 02:26 14,2 C 12,8 C 13,3 C 88 % 1022,7 hPa 0,0 l/m 0 min 0 min 0 W/m 4,5 km/h (1 Bft) 95,74 %
26.06.2018 02:28 14,1 C 12,8 C 13,3 C 88 % 1022,7 hPa 0,0 l/m 0 min 0 min 0 W/m 13,5 km/h (3 Bft) 95,65 %
26.06.2018 02:30 14,1 C 12,8 C 13,3 C 88 % 1022,7 hPa 0,0 l/m 0 min 0 min 0 W/m 4,5 km/h (1 Bft) 95,74 %
26.06.2018 02:32 14,0 C 12,8 C 13,3 C 88 % 1022,7 hPa 0,0 l/m 0 min 0 min 0 W/m 0,0 km/h (0 Bft) 97,87 %
26.06.2018 02:34 14,0 C 12,8 C 13,3 C 88 % 1022,7 hPa 0,0 l/m 0 min 0 min 0 W/m 0,0 km/h (0 Bft) 95,74 %
26.06.2018 02:38 13,9 C 12,8 C 13,3 C 88 % 1022,7 hPa 0,0 l/m 0 min 0 min 0 W/m 2,3 km/h (1 Bft) 95,74 %
26.06.2018 02:40 13,9 C 12,8 C 13,3 C 88 % 1022,7 hPa 0,0 l/m 0 min 0 min 0 W/m 4,5 km/h (1 Bft) 97,87 %
26.06.2018 02:42 13,9 C 12,8 C 13,3 C 88 % 1022,7 hPa 0,0 l/m 0 min 0 min 0 W/m 2,3 km/h (1 Bft) 97,83 %
26.06.2018 02:44 13,9 C 12,8 C 13,3 C 88 % 1022,7 hPa 0,0 l/m 0 min 0 min 0 W/m 0,0 km/h (0 Bft) 97,87 %
26.06.2018 02:46 13,8 C 12,8 C 13,3 C 88 % 1022,7 hPa 0,0 l/m 0 min 0 min 0 W/m 2,3 km/h (1 Bft) 97,87 %
26.06.2018 02:48 13,8 C 12,8 C 13,3 C 88 % 1022,7 hPa 0,0 l/m 0 min 0 min 0 W/m 4,5 km/h (1 Bft) 93,62 %
26.06.2018 02:50 13,8 C 12,8 C 13,3 C 88 % 1022,7 hPa 0,0 l/m 0 min 0 min 0 W/m 0,0 km/h (0 Bft) 97,87 %
26.06.2018 02:52 13,8 C 12,8 C 13,3 C 88 % 1022,6 hPa 0,0 l/m 0 min 0 min 0 W/m 0,0 km/h (0 Bft) 95,74 %
26.06.2018 02:54 13,8 C 12,8 C 13,3 C 88 % 1022,6 hPa 0,0 l/m 0 min 0 min 0 W/m 0,0 km/h (0 Bft) 95,65 %
26.06.2018 02:56 13,7 C 12,8 C 13,3 C 88 % 1022,7 hPa 0,0 l/m 0 min 0 min 0 W/m 2,3 km/h (1 Bft) 97,87 %
26.06.2018 02:58 13,7 C 12,2 C 12,8 C 89 % 1022,6 hPa 0,0 l/m 0 min 0 min 0 W/m 2,3 km/h (1 Bft) 95,74 %
26.06.2018 03:00 13,7 C 12,2 C 12,8 C 89 % 1022,6 hPa 0,0 l/m 0 min 0 min 0 W/m 2,3 km/h (1 Bft) 97,87 %
26.06.2018 03:02 13,7 C 12,2 C 12,8 C 89 % 1022,6 hPa 0,0 l/m 0 min 0 min 0 W/m 11,3 km/h (2 Bft) 97,87 %
26.06.2018 03:04 13,6 C 12,2 C 12,8 C 89 % 1022,6 hPa 0,0 l/m 0 min 0 min 0 W/m 2,3 km/h (1 Bft) 95,65 %
26.06.2018 03:06 13,6 C 12,2 C 12,8 C 89 % 1022,6 hPa 0,0 l/m 0 min 0 min 0 W/m 2,3 km/h (1 Bft) 95,74 %
26.06.2018 03:08 13,6 C 12,2 C 12,8 C 88 % 1022,6 hPa 0,0 l/m 0 min 0 min 0 W/m 0,0 km/h (0 Bft) 95,74 %
26.06.2018 03:10 13,6 C 12,2 C 12,8 C 89 % 1022,6 hPa 0,0 l/m 0 min 0 min 0 W/m 2,3 km/h (1 Bft) 93,62 %
26.06.2018 03:12 13,5 C 12,2 C 12,8 C 89 % 1022,7 hPa 0,0 l/m 0 min 0 min 0 W/m 0,0 km/h (0 Bft) 97,87 %
26.06.2018 03:14 13,5 C 12,2 C 12,8 C 89 % 1022,6 hPa 0,0 l/m 0 min 0 min 0 W/m 2,3 km/h (1 Bft) 97,87 %
26.06.2018 03:16 13,4 C 12,2 C 12,8 C 89 % 1022,7 hPa 0,0 l/m 0 min 0 min 0 W/m 0,0 km/h (0 Bft) 95,65 %
26.06.2018 03:18 13,4 C 12,2 C 12,8 C 89 % 1022,7 hPa 0,0 l/m 0 min 0 min 0 W/m 0,0 km/h (0 Bft) 95,74 %
26.06.2018 03:20 13,4 C 12,2 C 12,8 C 89 % 1022,7 hPa 0,0 l/m 0 min 0 min 0 W/m 0,0 km/h (0 Bft) 95,74 %
26.06.2018 03:22 13,3 C 11,7 C 12,2 C 89 % 1022,7 hPa 0,0 l/m 0 min 0 min 0 W/m 0,0 km/h (0 Bft) 95,74 %
26.06.2018 03:24 13,3 C 11,7 C 12,8 C 89 % 1022,7 hPa 0,0 l/m 0 min 0 min 0 W/m 2,3 km/h (1 Bft) 95,74 %
26.06.2018 03:26 13,3 C 11,7 C 12,8 C 89 % 1022,8 hPa 0,0 l/m 0 min 0 min 0 W/m 4,5 km/h (1 Bft) 95,74 %
26.06.2018 03:28 13,3 C 11,7 C 12,2 C 89 % 1022,8 hPa 0,0 l/m 0 min 0 min 0 W/m 9,0 km/h (2 Bft) 95,65 %
26.06.2018 03:30 13,2 C 11,7 C 12,2 C 89 % 1022,7 hPa 0,0 l/m 0 min 0 min 0 W/m 2,3 km/h (1 Bft) 95,74 %
26.06.2018 03:32 13,2 C 11,7 C 12,2 C 89 % 1022,8 hPa 0,0 l/m 0 min 0 min 0 W/m 2,3 km/h (1 Bft) 95,83 %
26.06.2018 03:34 13,2 C 11,7 C 12,2 C 89 % 1022,8 hPa 0,0 l/m 0 min 0 min 0 W/m 4,5 km/h (1 Bft) 95,74 %
26.06.2018 03:36 13,1 C 11,7 C 12,2 C 89 % 1022,7 hPa 0,0 l/m 0 min 0 min 0 W/m 2,3 km/h (1 Bft) 93,62 %
26.06.2018 03:38 13,1 C 11,7 C 12,2 C 89 % 1022,7 hPa 0,0 l/m 0 min 0 min 0 W/m 4,5 km/h (1 Bft) 95,65 %
26.06.2018 03:40 13,1 C 11,7 C 12,2 C 89 % 1022,7 hPa 0,0 l/m 0 min 0 min 0 W/m 4,5 km/h (1 Bft) 95,74 %
26.06.2018 03:42 13,1 C 11,7 C 12,2 C 90 % 1022,7 hPa 0,0 l/m 0 min 0 min 0 W/m 0,0 km/h (0 Bft) 95,74 %
26.06.2018 03:44 13,0 C 11,7 C 12,2 C 90 % 1022,7 hPa 0,0 l/m 0 min 0 min 0 W/m 0,0 km/h (0 Bft) 97,87 %
26.06.2018 03:46 13,0 C 11,7 C 12,2 C 90 % 1022,7 hPa 0,0 l/m 0 min 0 min 0 W/m 2,3 km/h (1 Bft) 97,87 %
26.06.2018 03:48 12,9 C 11,7 C 12,2 C 90 % 1022,7 hPa 0,0 l/m 0 min 0 min 0 W/m 2,3 km/h (1 Bft) 97,87 %
26.06.2018 03:50 12,9 C 11,7 C 12,2 C 90 % 1022,7 hPa 0,0 l/m 0 min 0 min 0 W/m 2,3 km/h (1 Bft) 95,74 %
26.06.2018 03:52 12,9 C 11,7 C 12,2 C 90 % 1022,7 hPa 0,0 l/m 0 min 0 min 0 W/m 6,8 km/h (2 Bft) 97,83 %
26.06.2018 03:54 12,8 C 11,7 C 12,2 C 90 % 1022,6 hPa 0,0 l/m 0 min 0 min 0 W/m 4,5 km/h (1 Bft) 97,87 %
26.06.2018 03:56 12,8 C 11,7 C 12,2 C 90 % 1022,6 hPa 0,0 l/m 0 min 0 min 0 W/m 4,5 km/h (1 Bft) 97,87 %
26.06.2018 03:58 12,8 C 11,7 C 12,2 C 90 % 1022,6 hPa 0,0 l/m 0 min 0 min 0 W/m 4,5 km/h (1 Bft) 95,74 %
26.06.2018 04:00 12,8 C 11,7 C 12,2 C 90 % 1022,6 hPa 0,0 l/m 0 min 0 min 0 W/m 0,0 km/h (0 Bft) 97,87 %
26.06.2018 04:05 12,7 C 11,7 C 12,2 C 91 % 1022,6 hPa 0,0 l/m 0 min 0 min 0 W/m 0,0 km/h (0 Bft) 100,00 %
26.06.2018 04:06 12,7 C 11,7 C 12,2 C 91 % 1022,6 hPa 0,0 l/m 0 min 0 min 0 W/m 0,0 km/h (0 Bft) 100,00 %
26.06.2018 04:08 12,7 C 11,7 C 12,2 C 91 % 1022,6 hPa 0,0 l/m 0 min 0 min 0 W/m 2,3 km/h (1 Bft) 97,87 %
26.06.2018 04:10 12,7 C 11,7 C 12,2 C 91 % 1022,6 hPa 0,0 l/m 0 min 0 min 0 W/m 0,0 km/h (0 Bft) 100,00 %
26.06.2018 04:12 12,7 C 11,7 C 12,2 C 91 % 1022,6 hPa 0,0 l/m 0 min 0 min 0 W/m 2,3 km/h (1 Bft) 100,00 %
26.06.2018 04:14 12,7 C 11,7 C 12,2 C 91 % 1022,6 hPa 0,0 l/m 0 min 0 min 0 W/m 0,0 km/h (0 Bft) 100,00 %
26.06.2018 04:16 12,6 C 11,7 C 12,2 C 91 % 1022,5 hPa 0,0 l/m 0 min 0 min 0 W/m 0,0 km/h (0 Bft) 100,00 %
26.06.2018 04:18 12,6 C 11,7 C 12,2 C 91 % 1022,5 hPa 0,0 l/m 0 min 0 min 0 W/m 0,0 km/h (0 Bft) 100,00 %
26.06.2018 04:20 12,6 C 11,7 C 12,2 C 91 % 1022,6 hPa 0,0 l/m 0 min 0 min 0 W/m 2,3 km/h (1 Bft) 100,00 %
26.06.2018 04:22 12,6 C 11,7 C 12,2 C 91 % 1022,6 hPa 0,0 l/m 0 min 0 min 0 W/m 0,0 km/h (0 Bft) 100,00 %
26.06.2018 04:24 12,6 C 11,7 C 12,2 C 91 % 1022,5 hPa 0,0 l/m 0 min 0 min 0 W/m 0,0 km/h (0 Bft) 100,00 %
26.06.2018 04:26 12,5 C 11,7 C 12,2 C 91 % 1022,5 hPa 0,0 l/m 0 min 0 min 0 W/m 0,0 km/h (0 Bft) 97,83 %
26.06.2018 04:28 12,5 C 11,1 C 11,7 C 91 % 1022,6 hPa 0,0 l/m 0 min 0 min 0 W/m 2,3 km/h (1 Bft) 100,00 %
26.06.2018 04:30 12,4 C 11,1 C 11,7 C 91 % 1022,6 hPa 0,0 l/m 0 min 0 min 0 W/m 0,0 km/h (0 Bft) 100,00 %
26.06.2018 04:32 12,4 C 11,1 C 11,7 C 91 % 1022,6 hPa 0,0 l/m 0 min 0 min 0 W/m 0,0 km/h (0 Bft) 97,87 %
26.06.2018 04:34 12,4 C 11,1 C 11,7 C 91 % 1022,6 hPa 0,0 l/m 0 min 0 min 0 W/m 2,3 km/h (1 Bft) 100,00 %
26.06.2018 04:36 12,4 C 11,1 C 11,7 C 91 % 1022,6 hPa 0,0 l/m 0 min 0 min 0 W/m 4,5 km/h (1 Bft) 100,00 %
26.06.2018 04:38 12,4 C 11,1 C 11,7 C 91 % 1022,6 hPa 0,0 l/m 0 min 0 min 0 W/m 4,5 km/h (1 Bft) 100,00 %
26.06.2018 04:40 12,3 C 11,1 C 11,7 C 91 % 1022,6 hPa 0,0 l/m 0 min 0 min 0 W/m 4,5 km/h (1 Bft) 100,00 %
26.06.2018 04:42 12,3 C 11,7 C 11,7 C 91 % 1022,6 hPa 0,0 l/m 0 min 0 min 0 W/m 2,3 km/h (1 Bft) 100,00 %
26.06.2018 04:44 12,3 C 11,7 C 11,7 C 91 % 1022,6 hPa 0,0 l/m 0 min 0 min 0 W/m 0,0 km/h (0 Bft) 100,00 %
26.06.2018 04:46 12,3 C 11,1 C 11,7 C 91 % 1022,7 hPa 0,0 l/m 0 min 0 min 0 W/m 6,8 km/h (2 Bft) 100,00 %
26.06.2018 04:48 12,3 C 11,1 C 11,7 C 91 % 1022,7 hPa 0,0 l/m 0 min 0 min 0 W/m 2,3 km/h (1 Bft) 100,00 %
26.06.2018 04:50 12,2 C 11,1 C 11,7 C 92 % 1022,6 hPa 0,0 l/m 0 min 0 min 0 W/m 0,0 km/h (0 Bft) 100,00 %
26.06.2018 04:52 12,2 C 11,1 C 11,7 C 92 % 1022,6 hPa 0,0 l/m 0 min 0 min 0 W/m 0,0 km/h (0 Bft) 100,00 %
26.06.2018 04:54 12,2 C 11,1 C 11,7 C 92 % 1022,6 hPa 0,0 l/m 0 min 0 min 0 W/m 4,5 km/h (1 Bft) 100,00 %
26.06.2018 04:56 12,2 C 11,1 C 11,7 C 92 % 1022,6 hPa 0,0 l/m 0 min 0 min 0 W/m 2,3 km/h (1 Bft) 95,74 %
26.06.2018 04:58 12,2 C 11,1 C 11,7 C 92 % 1022,6 hPa 0,0 l/m 0 min 0 min 0 W/m 0,0 km/h (0 Bft) 97,87 %
26.06.2018 05:00 12,1 C 11,1 C 11,7 C 92 % 1022,6 hPa 0,0 l/m 0 min 0 min 0 W/m 9,0 km/h (2 Bft) 97,87 %
26.06.2018 05:02 12,1 C 11,1 C 11,7 C 92 % 1022,5 hPa 0,0 l/m 0 min 0 min 0 W/m 0,0 km/h (0 Bft) 95,65 %
26.06.2018 05:04 12,1 C 11,1 C 11,7 C 92 % 1022,7 hPa 0,0 l/m 0 min 0 min 0 W/m 0,0 km/h (0 Bft) 97,87 %
26.06.2018 05:06 12,1 C 11,1 C 11,7 C 92 % 1022,6 hPa 0,0 l/m 0 min 0 min 0 W/m 2,3 km/h (1 Bft) 95,74 %
26.06.2018 05:08 12,1 C 11,1 C 11,7 C 92 % 1022,7 hPa 0,0 l/m 0 min 0 min 0 W/m 4,5 km/h (1 Bft) 95,74 %
26.06.2018 05:10 12,1 C 11,1 C 11,7 C 92 % 1022,6 hPa 0,0 l/m 0 min 0 min 0 W/m 0,0 km/h (0 Bft) 97,87 %
26.06.2018 05:12 12,0 C 11,1 C 11,7 C 92 % 1022,7 hPa 0,0 l/m 0 min 0 min 0 W/m 0,0 km/h (0 Bft) 97,83 %
26.06.2018 05:14 12,0 C 11,7 C 11,7 C 92 % 1022,7 hPa 0,0 l/m 0 min 0 min 0 W/m 2,3 km/h (1 Bft) 95,74 %
26.06.2018 05:16 12,0 C 11,7 C 11,7 C 92 % 1022,7 hPa 0,0 l/m 0 min 0 min 0 W/m 2,3 km/h (1 Bft) 97,87 %
26.06.2018 05:18 12,0 C 11,7 C 11,7 C 92 % 1022,7 hPa 0,0 l/m 0 min 0 min 0 W/m 6,8 km/h (2 Bft) 97,87 %
26.06.2018 05:20 12,0 C 11,7 C 11,7 C 92 % 1022,7 hPa 0,0 l/m 0 min 0 min 0 W/m 9,0 km/h (2 Bft) 95,74 %
26.06.2018 05:22 12,0 C 11,7 C 11,7 C 92 % 1022,7 hPa 0,0 l/m 0 min 0 min 0 W/m 2,3 km/h (1 Bft) 97,87 %
26.06.2018 05:24 12,0 C 11,7 C 11,7 C 92 % 1022,7 hPa 0,0 l/m 0 min 0 min 0 W/m 0,0 km/h (0 Bft) 97,83 %
26.06.2018 05:26 12,0 C 11,7 C 11,7 C 92 % 1022,7 hPa 0,0 l/m 0 min 0 min 5 W/m 0,0 km/h (0 Bft) 97,87 %
26.06.2018 05:28 12,0 C 11,7 C 11,7 C 92 % 1022,7 hPa 0,0 l/m 0 min 0 min 5 W/m 2,3 km/h (1 Bft) 97,87 %
26.06.2018 05:30 12,0 C 11,7 C 11,7 C 92 % 1022,7 hPa 0,0 l/m 0 min 0 min 5 W/m 4,5 km/h (1 Bft) 97,87 %
26.06.2018 05:32 12,0 C 11,7 C 11,7 C 92 % 1022,7 hPa 0,0 l/m 0 min 0 min 5 W/m 4,5 km/h (1 Bft) 95,74 %
26.06.2018 05:34 12,0 C 11,7 C 11,7 C 93 % 1022,7 hPa 0,0 l/m 0 min 0 min 5 W/m 4,5 km/h (1 Bft) 95,74 %
26.06.2018 05:35 12,0 C 11,7 C 11,7 C 93 % 1022,7 hPa 0,0 l/m 0 min 0 min 5 W/m 4,5 km/h (1 Bft) 98,25 %
26.06.2018 05:40 12,1 C 11,7 C 11,7 C 93 % 1022,8 hPa 0,0 l/m 0 min 0 min 7 W/m 4,5 km/h (1 Bft) 95,45 %
26.06.2018 05:42 12,1 C 11,7 C 11,7 C 93 % 1022,8 hPa 0,0 l/m 0 min 0 min 8 W/m 2,3 km/h (1 Bft) 97,87 %
26.06.2018 05:44 12,1 C 12,2 C 11,7 C 93 % 1022,8 hPa 0,0 l/m 0 min 0 min 9 W/m 6,8 km/h (2 Bft) 95,74 %
26.06.2018 05:46 12,1 C 12,2 C 11,7 C 93 % 1022,8 hPa 0,0 l/m 0 min 0 min 10 W/m 6,8 km/h (2 Bft) 96,23 %
26.06.2018 05:48 12,1 C 12,2 C 11,7 C 93 % 1022,8 hPa 0,0 l/m 0 min 0 min 11 W/m 0,0 km/h (0 Bft) 95,74 %
26.06.2018 05:50 12,1 C 12,2 C 11,7 C 93 % 1022,8 hPa 0,0 l/m 0 min 0 min 11 W/m 0,0 km/h (0 Bft) 97,83 %
26.06.2018 05:52 12,1 C 12,2 C 11,7 C 93 % 1022,7 hPa 0,0 l/m 0 min 0 min 12 W/m 4,5 km/h (1 Bft) 97,44 %
26.06.2018 05:54 12,1 C 12,2 C 11,7 C 92 % 1022,8 hPa 0,0 l/m 0 min 0 min 11 W/m 4,5 km/h (1 Bft) 97,96 %
26.06.2018 05:56 12,1 C 12,2 C 11,7 C 92 % 1022,8 hPa 0,0 l/m 0 min 0 min 11 W/m 6,8 km/h (2 Bft) 95,74 %
26.06.2018 05:58 12,2 C 12,2 C 11,7 C 92 % 1022,8 hPa 0,0 l/m 0 min 0 min 13 W/m 2,3 km/h (1 Bft) 97,87 %
26.06.2018 06:00 12,2 C 12,2 C 11,7 C 92 % 1022,7 hPa 0,0 l/m 0 min 0 min 14 W/m 4,5 km/h (1 Bft) 97,87 %
26.06.2018 06:02 12,2 C 12,2 C 11,7 C 92 % 1022,7 hPa 0,0 l/m 0 min 0 min 16 W/m 6,8 km/h (2 Bft) 97,83 %
26.06.2018 06:04 12,2 C 12,2 C 11,7 C 93 % 1022,7 hPa 0,0 l/m 0 min 0 min 18 W/m 4,5 km/h (1 Bft) 95,74 %
26.06.2018 06:08 12,2 C 12,2 C 11,7 C 93 % 1022,8 hPa 0,0 l/m 0 min 0 min 17 W/m 4,5 km/h (1 Bft) 97,87 %
26.06.2018 06:10 12,2 C 12,2 C 11,7 C 93 % 1022,8 hPa 0,0 l/m 0 min 0 min 18 W/m 4,5 km/h (1 Bft) 97,87 %
26.06.2018 06:12 12,2 C 12,2 C 11,7 C 92 % 1022,8 hPa 0,0 l/m 0 min 0 min 18 W/m 2,3 km/h (1 Bft) 97,87 %
26.06.2018 06:14 12,2 C 12,2 C 11,7 C 92 % 1022,8 hPa 0,0 l/m 0 min 0 min 19 W/m 2,3 km/h (1 Bft) 97,83 %
26.06.2018 06:16 12,2 C 12,2 C 11,7 C 92 % 1022,8 hPa 0,0 l/m 0 min 0 min 20 W/m 6,8 km/h (2 Bft) 95,74 %
26.06.2018 06:18 12,3 C 12,2 C 11,7 C 92 % 1022,8 hPa 0,0 l/m 0 min 0 min 20 W/m 6,8 km/h (2 Bft) 95,74 %
26.06.2018 06:20 12,2 C 12,2 C 11,7 C 92 % 1022,8 hPa 0,0 l/m 0 min 0 min 20 W/m 2,3 km/h (1 Bft) 93,62 %
26.06.2018 06:22 12,2 C 12,2 C 11,7 C 92 % 1022,9 hPa 0,0 l/m 0 min 0 min 24 W/m 2,3 km/h (1 Bft) 98,15 %
26.06.2018 06:24 12,3 C 12,2 C 11,7 C 92 % 1022,8 hPa 0,0 l/m 0 min 0 min 25 W/m 4,5 km/h (1 Bft) 97,83 %
26.06.2018 06:26 12,3 C 12,2 C 11,7 C 92 % 1022,8 hPa 0,0 l/m 0 min 0 min 24 W/m 4,5 km/h (1 Bft) 97,22 %
26.06.2018 06:28 12,3 C 12,2 C 11,7 C 92 % 1022,8 hPa 0,0 l/m 0 min 0 min 23 W/m 2,3 km/h (1 Bft) 97,83 %
26.06.2018 06:30 12,3 C 12,2 C 11,7 C 92 % 1022,8 hPa 0,0 l/m 0 min 0 min 24 W/m 9,0 km/h (2 Bft) 97,87 %
26.06.2018 06:32 12,3 C 12,2 C 11,7 C 92 % 1022,8 hPa 0,0 l/m 0 min 0 min 27 W/m 9,0 km/h (2 Bft) 100,00 %
26.06.2018 06:34 12,3 C 12,2 C 11,7 C 92 % 1022,9 hPa 0,0 l/m 0 min 0 min 29 W/m 4,5 km/h (1 Bft) 100,00 %
26.06.2018 06:36 12,3 C 12,2 C 11,7 C 92 % 1022,9 hPa 0,0 l/m 0 min 0 min 33 W/m 11,3 km/h (2 Bft) 100,00 %
26.06.2018 06:38 12,3 C 12,2 C 11,7 C 92 % 1022,9 hPa 0,0 l/m 0 min 0 min 35 W/m 4,5 km/h (1 Bft) 100,00 %
26.06.2018 06:40 12,3 C 12,2 C 11,7 C 92 % 1022,9 hPa 0,0 l/m 0 min 0 min 36 W/m 4,5 km/h (1 Bft) 100,00 %
26.06.2018 06:42 12,3 C 12,2 C 11,7 C 92 % 1023,0 hPa 0,0 l/m 0 min 0 min 40 W/m 2,3 km/h (1 Bft) 100,00 %
26.06.2018 06:44 12,3 C 12,2 C 11,7 C 92 % 1023,0 hPa 0,0 l/m 0 min 0 min 42 W/m 9,0 km/h (2 Bft) 100,00 %
26.06.2018 06:46 12,3 C 12,2 C 11,7 C 92 % 1023,1 hPa 0,0 l/m 0 min 0 min 42 W/m 6,8 km/h (2 Bft) 100,00 %
26.06.2018 06:48 12,3 C 12,2 C 11,7 C 92 % 1023,0 hPa 0,0 l/m 0 min 0 min 44 W/m 2,3 km/h (1 Bft) 98,28 %
26.06.2018 06:50 12,3 C 12,2 C 11,7 C 92 % 1023,1 hPa 0,0 l/m 0 min 0 min 46 W/m 2,3 km/h (1 Bft) 95,74 %
26.06.2018 06:52 12,3 C 12,2 C 11,7 C 92 % 1023,1 hPa 0,0 l/m 0 min 0 min 47 W/m 6,8 km/h (2 Bft) 100,00 %
26.06.2018 06:54 12,3 C 12,2 C 11,7 C 92 % 1023,1 hPa 0,0 l/m 0 min 0 min 44 W/m 9,0 km/h (2 Bft) 100,00 %
26.06.2018 06:56 12,3 C 12,2 C 11,7 C 92 % 1023,1 hPa 0,0 l/m 0 min 0 min 50 W/m 6,8 km/h (2 Bft) 100,00 %
26.06.2018 06:58 12,3 C 12,2 C 11,7 C 92 % 1023,1 hPa 0,0 l/m 0 min 0 min 57 W/m 4,5 km/h (1 Bft) 100,00 %
26.06.2018 07:00 12,3 C 12,2 C 11,7 C 92 % 1023,0 hPa 0,0 l/m 0 min 0 min 55 W/m 6,8 km/h (2 Bft) 97,87 %
26.06.2018 07:02 12,3 C 12,2 C 11,7 C 92 % 1023,1 hPa 0,0 l/m 0 min 0 min 60 W/m 4,5 km/h (1 Bft) 97,83 %
26.06.2018 07:04 12,3 C 12,2 C 11,7 C 92 % 1023,0 hPa 0,0 l/m 0 min 0 min 65 W/m 6,8 km/h (2 Bft) 97,87 %
26.06.2018 07:06 12,3 C 12,2 C 11,7 C 91 % 1023,1 hPa 0,0 l/m 0 min 0 min 69 W/m 11,3 km/h (2 Bft) 97,87 %
26.06.2018 07:08 12,3 C 12,2 C 11,7 C 91 % 1023,1 hPa 0,0 l/m 0 min 0 min 72 W/m 4,5 km/h (1 Bft) 97,87 %
26.06.2018 07:10 12,3 C 12,2 C 11,7 C 91 % 1023,1 hPa 0,0 l/m 0 min 0 min 68 W/m 6,8 km/h (2 Bft) 97,87 %
26.06.2018 07:12 12,3 C 12,8 C 11,7 C 91 % 1023,1 hPa 0,0 l/m 0 min 0 min 70 W/m 6,8 km/h (2 Bft) 95,74 %
26.06.2018 07:14 12,3 C 12,8 C 11,7 C 91 % 1023,1 hPa 0,0 l/m 0 min 0 min 77 W/m 11,3 km/h (2 Bft) 93,48 %
26.06.2018 07:16 12,3 C 12,8 C 11,7 C 91 % 1023,1 hPa 0,0 l/m 0 min 0 min 81 W/m 4,5 km/h (1 Bft) 97,87 %
26.06.2018 07:18 12,4 C 12,8 C 12,2 C 91 % 1023,1 hPa 0,0 l/m 0 min 0 min 85 W/m 9,0 km/h (2 Bft) 97,87 %
26.06.2018 07:20 12,4 C 12,8 C 12,2 C 91 % 1023,1 hPa 0,0 l/m 0 min 0 min 87 W/m 15,8 km/h (3 Bft) 97,87 %
26.06.2018 07:22 12,4 C 12,8 C 12,2 C 91 % 1023,2 hPa 0,0 l/m 0 min 0 min 92 W/m 9,0 km/h (2 Bft) 95,83 %
26.06.2018 07:24 12,4 C 12,8 C 12,2 C 91 % 1023,2 hPa 0,0 l/m 0 min 0 min 88 W/m 11,3 km/h (2 Bft) 97,83 %
26.06.2018 07:26 12,4 C 12,8 C 12,2 C 91 % 1023,1 hPa 0,0 l/m 0 min 0 min 91 W/m 9,0 km/h (2 Bft) 97,87 %
26.06.2018 07:28 12,4 C 12,8 C 12,2 C 91 % 1023,1 hPa 0,0 l/m 0 min 0 min 87 W/m 11,3 km/h (2 Bft) 97,87 %
26.06.2018 07:30 12,4 C 12,8 C 12,2 C 91 % 1023,1 hPa 0,0 l/m 0 min 0 min 87 W/m 6,8 km/h (2 Bft) 97,87 %
26.06.2018 07:32 12,4 C 12,8 C 12,2 C 91 % 1023,1 hPa 0,0 l/m 0 min 0 min 93 W/m 6,8 km/h (2 Bft) 97,87 %
26.06.2018 07:34 12,4 C 12,8 C 12,2 C 91 % 1023,1 hPa 0,0 l/m 0 min 0 min 97 W/m 13,5 km/h (3 Bft) 97,87 %
26.06.2018 07:36 12,4 C 12,8 C 12,2 C 91 % 1023,1 hPa 0,0 l/m 0 min 0 min 104 W/m 9,0 km/h (2 Bft) 100,00 %
26.06.2018 07:38 12,5 C 12,8 C 12,2 C 91 % 1023,1 hPa 0,0 l/m 0 min 0 min 102 W/m 4,5 km/h (1 Bft) 97,87 %
26.06.2018 07:40 12,5 C 12,8 C 12,2 C 91 % 1023,2 hPa 0,0 l/m 0 min 0 min 96 W/m 2,3 km/h (1 Bft) 97,87 %
26.06.2018 07:42 12,5 C 12,8 C 12,2 C 91 % 1023,1 hPa 0,0 l/m 0 min 0 min 97 W/m 2,3 km/h (1 Bft) 97,87 %
26.06.2018 07:44 12,5 C 12,8 C 12,2 C 91 % 1023,1 hPa 0,0 l/m 0 min 0 min 101 W/m 4,5 km/h (1 Bft) 97,87 %
26.06.2018 07:46 12,6 C 12,8 C 12,2 C 91 % 1023,2 hPa 0,0 l/m 0 min 0 min 96 W/m 11,3 km/h (2 Bft) 97,87 %
26.06.2018 07:48 12,6 C 12,8 C 12,2 C 90 % 1023,2 hPa 0,0 l/m 0 min 0 min 100 W/m 9,0 km/h (2 Bft) 97,83 %
26.06.2018 07:50 12,6 C 12,8 C 12,2 C 90 % 1023,2 hPa 0,0 l/m 0 min 0 min 114 W/m 6,8 km/h (2 Bft) 95,74 %
26.06.2018 07:52 12,6 C 12,8 C 12,2 C 90 % 1023,2 hPa 0,0 l/m 0 min 0 min 114 W/m 11,3 km/h (2 Bft) 95,35 %
26.06.2018 07:54 12,6 C 12,8 C 12,2 C 90 % 1023,2 hPa 0,0 l/m 0 min 0 min 114 W/m 4,5 km/h (1 Bft) 95,74 %
26.06.2018 07:56 12,6 C 12,8 C 12,2 C 90 % 1023,3 hPa 0,0 l/m 0 min 0 min 120 W/m 4,5 km/h (1 Bft) 95,74 %
26.06.2018 07:58 12,6 C 12,8 C 12,2 C 90 % 1023,3 hPa 0,0 l/m 0 min 0 min 125 W/m 11,3 km/h (2 Bft) 95,74 %
26.06.2018 08:00 12,6 C 12,8 C 12,2 C 90 % 1023,2 hPa 0,0 l/m 0 min 0 min 126 W/m 11,3 km/h (2 Bft) 97,87 %
26.06.2018 08:02 12,6 C 12,8 C 12,2 C 90 % 1023,3 hPa 0,0 l/m 0 min 0 min 120 W/m 6,8 km/h (2 Bft) 95,65 %
26.06.2018 08:04 12,6 C 12,8 C 12,2 C 89 % 1023,3 hPa 0,0 l/m 0 min 0 min 124 W/m 6,8 km/h (2 Bft) 97,92 %
26.06.2018 08:06 12,6 C 13,3 C 12,2 C 89 % 1023,3 hPa 0,0 l/m 0 min 0 min 140 W/m 2,3 km/h (1 Bft) 93,62 %
26.06.2018 08:08 12,6 C 13,3 C 12,2 C 89 % 1023,3 hPa 0,0 l/m 0 min 0 min 139 W/m 4,5 km/h (1 Bft) 97,87 %
26.06.2018 08:10 12,6 C 13,3 C 12,2 C 89 % 1023,3 hPa 0,0 l/m 0 min 0 min 133 W/m 9,0 km/h (2 Bft) 97,87 %
26.06.2018 08:12 12,6 C 13,3 C 12,2 C 89 % 1023,3 hPa 0,0 l/m 0 min 0 min 138 W/m 9,0 km/h (2 Bft) 95,65 %
26.06.2018 08:14 12,7 C 13,3 C 12,2 C 89 % 1023,2 hPa 0,0 l/m 0 min 0 min 142 W/m 4,5 km/h (1 Bft) 97,87 %
26.06.2018 08:16 12,7 C 13,3 C 12,2 C 89 % 1023,3 hPa 0,0 l/m 0 min 0 min 136 W/m 9,0 km/h (2 Bft) 95,74 %
26.06.2018 08:18 12,7 C 13,3 C 12,2 C 89 % 1023,4 hPa 0,0 l/m 0 min 0 min 139 W/m 6,8 km/h (2 Bft) 97,87 %
26.06.2018 08:20 12,7 C 13,3 C 12,2 C 88 % 1023,3 hPa 0,0 l/m 0 min 0 min 149 W/m 9,0 km/h (2 Bft) 93,62 %
26.06.2018 08:22 12,7 C 13,3 C 12,2 C 88 % 1023,4 hPa 0,0 l/m 0 min 0 min 164 W/m 11,3 km/h (2 Bft) 94,00 %
26.06.2018 08:24 12,7 C 13,3 C 12,2 C 88 % 1023,4 hPa 0,0 l/m 0 min 0 min 167 W/m 9,0 km/h (2 Bft) 97,56 %
26.06.2018 08:26 12,7 C 13,3 C 12,2 C 88 % 1023,4 hPa 0,0 l/m 0 min 0 min 162 W/m 6,8 km/h (2 Bft) 97,87 %
26.06.2018 08:28 12,7 C 13,3 C 12,2 C 88 % 1023,5 hPa 0,0 l/m 0 min 0 min 165 W/m 9,0 km/h (2 Bft) 97,87 %
26.06.2018 08:30 12,8 C 13,3 C 12,2 C 88 % 1023,4 hPa 0,0 l/m 0 min 0 min 180 W/m 6,8 km/h (2 Bft) 95,74 %
26.06.2018 08:32 12,8 C 13,3 C 12,2 C 88 % 1023,5 hPa 0,0 l/m 0 min 0 min 183 W/m 11,3 km/h (2 Bft) 93,62 %
26.06.2018 08:34 12,8 C 13,9 C 12,2 C 87 % 1023,5 hPa 0,0 l/m 0 min 0 min 188 W/m 9,0 km/h (2 Bft) 96,55 %
26.06.2018 08:36 12,8 C 13,9 C 12,2 C 87 % 1023,5 hPa 0,0 l/m 0 min 0 min 194 W/m 9,0 km/h (2 Bft) 100,00 %
26.06.2018 08:38 12,9 C 13,9 C 12,2 C 87 % 1023,4 hPa 0,0 l/m 0 min 0 min 199 W/m 11,3 km/h (2 Bft) 91,49 %
26.06.2018 08:40 12,9 C 13,9 C 12,2 C 87 % 1023,4 hPa 0,0 l/m 0 min 0 min 205 W/m 9,0 km/h (2 Bft) 95,74 %
26.06.2018 08:42 12,9 C 13,9 C 12,2 C 87 % 1023,5 hPa 0,0 l/m 0 min 0 min 202 W/m 9,0 km/h (2 Bft) 97,87 %
26.06.2018 08:44 12,9 C 13,9 C 12,2 C 87 % 1023,5 hPa 0,0 l/m 0 min 0 min 207 W/m 4,5 km/h (1 Bft) 97,87 %
26.06.2018 08:46 12,9 C 13,9 C 12,2 C 87 % 1023,4 hPa 0,0 l/m 0 min 0 min 212 W/m 9,0 km/h (2 Bft) 95,74 %
26.06.2018 08:48 12,9 C 14,4 C 12,8 C 87 % 1023,4 hPa 0,0 l/m 0 min 0 min 222 W/m 11,3 km/h (2 Bft) 97,83 %
26.06.2018 08:50 13,0 C 14,4 C 12,8 C 87 % 1023,5 hPa 0,0 l/m 0 min 0 min 224 W/m 9,0 km/h (2 Bft) 97,87 %
26.06.2018 08:52 13,0 C 13,9 C 12,8 C 87 % 1023,4 hPa 0,0 l/m 0 min 0 min 234 W/m 9,0 km/h (2 Bft) 98,04 %
26.06.2018 08:54 13,1 C 13,9 C 12,8 C 87 % 1023,4 hPa 0,0 l/m 0 min 0 min 243 W/m 9,0 km/h (2 Bft) 97,87 %
26.06.2018 08:56 13,1 C 14,4 C 12,8 C 86 % 1023,4 hPa 0,0 l/m 0 min 0 min 237 W/m 9,0 km/h (2 Bft) 97,87 %
26.06.2018 08:58 13,1 C 14,4 C 12,8 C 86 % 1023,4 hPa 0,0 l/m 0 min 0 min 237 W/m 4,5 km/h (1 Bft) 97,83 %
26.06.2018 09:00 13,2 C 14,4 C 12,8 C 86 % 1023,5 hPa 0,0 l/m 0 min 0 min 238 W/m 4,5 km/h (1 Bft) 97,87 %
26.06.2018 09:02 13,2 C 14,4 C 12,8 C 86 % 1023,5 hPa 0,0 l/m 0 min 0 min 234 W/m 6,8 km/h (2 Bft) 96,23 %
26.06.2018 09:04 13,3 C 14,4 C 12,8 C 86 % 1023,6 hPa 0,0 l/m 0 min 0 min 235 W/m 11,3 km/h (2 Bft) 97,87 %
26.06.2018 09:06 13,3 C 14,4 C 12,8 C 86 % 1023,5 hPa 0,0 l/m 0 min 0 min 231 W/m 9,0 km/h (2 Bft) 97,22 %
26.06.2018 09:08 13,3 C 14,4 C 12,8 C 86 % 1023,5 hPa 0,0 l/m 0 min 0 min 228 W/m 6,8 km/h (2 Bft) 91,49 %
26.06.2018 09:10 13,3 C 14,4 C 12,8 C 85 % 1023,6 hPa 0,0 l/m 0 min 0 min 241 W/m 13,5 km/h (3 Bft) 95,74 %
26.06.2018 09:12 13,4 C 14,4 C 12,8 C 85 % 1023,4 hPa 0,0 l/m 0 min 0 min 255 W/m 9,0 km/h (2 Bft) 97,83 %
26.06.2018 09:14 13,4 C 14,4 C 12,8 C 85 % 1023,4 hPa 0,0 l/m 0 min 0 min 275 W/m 15,8 km/h (3 Bft) 98,31 %
26.06.2018 09:16 13,4 C 15,0 C 12,8 C 85 % 1023,5 hPa 0,0 l/m 0 min 0 min 268 W/m 6,8 km/h (2 Bft) 97,87 %
26.06.2018 09:18 13,5 C 15,0 C 12,8 C 85 % 1023,5 hPa 0,0 l/m 0 min 0 min 277 W/m 6,8 km/h (2 Bft) 97,14 %
26.06.2018 09:20 13,5 C 15,0 C 12,8 C 85 % 1023,6 hPa 0,0 l/m 0 min 0 min 266 W/m 6,8 km/h (2 Bft) 98,28 %
26.06.2018 09:22 13,6 C 15,0 C 12,8 C 85 % 1023,5 hPa 0,0 l/m 0 min 0 min 263 W/m 6,8 km/h (2 Bft) 97,30 %
26.06.2018 09:24 13,6 C 15,6 C 13,3 C 85 % 1023,6 hPa 0,0 l/m 0 min 0 min 276 W/m 4,5 km/h (1 Bft) 98,00 %
26.06.2018 09:26 13,7 C 15,6 C 13,3 C 84 % 1023,6 hPa 0,0 l/m 0 min 0 min 291 W/m 18,0 km/h (3 Bft) 97,92 %
26.06.2018 09:28 13,7 C 15,6 C 13,3 C 84 % 1023,6 hPa 0,0 l/m 2 min 0 min 312 W/m 9,0 km/h (2 Bft) 97,87 %
26.06.2018 09:30 13,7 C 15,6 C 13,3 C 84 % 1023,6 hPa 0,0 l/m 0 min 0 min 287 W/m 6,8 km/h (2 Bft) 100,00 %
26.06.2018 09:32 13,8 C 15,6 C 13,3 C 84 % 1023,6 hPa 0,0 l/m 0 min 0 min 288 W/m 6,8 km/h (2 Bft) 97,87 %
26.06.2018 09:34 13,8 C 15,6 C 13,3 C 84 % 1023,7 hPa 0,0 l/m 0 min 0 min 272 W/m 6,8 km/h (2 Bft) 100,00 %
26.06.2018 09:36 13,9 C 15,6 C 13,3 C 84 % 1023,6 hPa 0,0 l/m 0 min 0 min 282 W/m 6,8 km/h (2 Bft) 100,00 %
26.06.2018 09:38 13,9 C 15,6 C 13,3 C 83 % 1023,6 hPa 0,0 l/m 0 min 0 min 299 W/m 6,8 km/h (2 Bft) 100,00 %
26.06.2018 09:40 13,9 C 15,6 C 13,3 C 83 % 1023,7 hPa 0,0 l/m 0 min 0 min 285 W/m 11,3 km/h (2 Bft) 100,00 %
26.06.2018 09:42 14,0 C 15,6 C 13,3 C 83 % 1023,7 hPa 0,0 l/m 0 min 0 min 279 W/m 9,0 km/h (2 Bft) 100,00 %
26.06.2018 09:44 14,1 C 15,0 C 13,3 C 83 % 1023,8 hPa 0,0 l/m 0 min 0 min 287 W/m 6,8 km/h (2 Bft) 100,00 %
26.06.2018 09:46 14,1 C 15,6 C 13,3 C 83 % 1023,7 hPa 0,0 l/m 0 min 0 min 299 W/m 4,5 km/h (1 Bft) 100,00 %
26.06.2018 09:48 14,2 C 15,0 C 13,3 C 83 % 1023,8 hPa 0,0 l/m 0 min 0 min 302 W/m 9,0 km/h (2 Bft) 100,00 %
26.06.2018 09:50 14,2 C 15,6 C 13,3 C 82 % 1023,8 hPa 0,0 l/m 0 min 0 min 314 W/m 9,0 km/h (2 Bft) 100,00 %
26.06.2018 09:52 14,2 C 16,1 C 13,3 C 82 % 1023,8 hPa 0,0 l/m 2 min 0 min 344 W/m 4,5 km/h (1 Bft) 100,00 %
26.06.2018 09:54 14,2 C 16,1 C 13,3 C 82 % 1023,7 hPa 0,0 l/m 2 min 0 min 328 W/m 6,8 km/h (2 Bft) 100,00 %
26.06.2018 09:56 14,2 C 16,1 C 13,9 C 82 % 1023,8 hPa 0,0 l/m 0 min 0 min 321 W/m 9,0 km/h (2 Bft) 100,00 %
26.06.2018 09:58 14,2 C 16,1 C 13,9 C 82 % 1023,8 hPa 0,0 l/m 2 min 0 min 333 W/m 11,3 km/h (2 Bft) 100,00 %
26.06.2018 10:00 14,3 C 16,1 C 13,3 C 82 % 1023,8 hPa 0,0 l/m 2 min 0 min 334 W/m 6,8 km/h (2 Bft) 97,87 %
26.06.2018 10:02 14,3 C 16,7 C 13,9 C 82 % 1023,8 hPa 0,0 l/m 2 min 0 min 388 W/m 6,8 km/h (2 Bft) 100,00 %
26.06.2018 10:04 14,4 C 16,7 C 13,9 C 82 % 1023,8 hPa 0,0 l/m 2 min 0 min 405 W/m 9,0 km/h (2 Bft) 97,87 %
26.06.2018 10:06 14,4 C 16,7 C 13,9 C 82 % 1023,8 hPa 0,0 l/m 2 min 0 min 385 W/m 9,0 km/h (2 Bft) 97,87 %
26.06.2018 10:08 14,5 C 16,7 C 13,9 C 82 % 1023,8 hPa 0,0 l/m 0 min 0 min 330 W/m 6,8 km/h (2 Bft) 97,83 %
26.06.2018 10:10 14,6 C 16,7 C 13,9 C 81 % 1023,8 hPa 0,0 l/m 0 min 0 min 335 W/m 18,0 km/h (3 Bft) 100,00 %
26.06.2018 10:12 14,6 C 16,7 C 13,9 C 81 % 1023,8 hPa 0,0 l/m 2 min 0 min 411 W/m 11,3 km/h (2 Bft) 97,87 %
26.06.2018 10:14 14,6 C 16,7 C 13,9 C 81 % 1023,7 hPa 0,0 l/m 2 min 0 min 385 W/m 9,0 km/h (2 Bft) 97,87 %
26.06.2018 10:16 14,7 C 16,1 C 13,9 C 80 % 1023,7 hPa 0,0 l/m 2 min 0 min 406 W/m 13,5 km/h (3 Bft) 95,74 %
26.06.2018 10:18 14,7 C 16,7 C 13,9 C 80 % 1023,7 hPa 0,0 l/m 2 min 0 min 427 W/m 9,0 km/h (2 Bft) 97,87 %
26.06.2018 10:20 14,7 C 16,7 C 13,9 C 80 % 1023,7 hPa 0,0 l/m 0 min 0 min 341 W/m 9,0 km/h (2 Bft) 97,83 %
26.06.2018 10:22 14,8 C 16,7 C 13,9 C 80 % 1023,7 hPa 0,0 l/m 0 min 0 min 340 W/m 6,8 km/h (2 Bft) 95,74 %
26.06.2018 10:24 14,8 C 16,7 C 13,9 C 80 % 1023,7 hPa 0,0 l/m 0 min 0 min 346 W/m 6,8 km/h (2 Bft) 93,62 %
26.06.2018 10:26 14,9 C 17,2 C 13,9 C 80 % 1023,6 hPa 0,0 l/m 2 min 0 min 363 W/m 2,3 km/h (1 Bft) 95,74 %
26.06.2018 10:28 14,9 C 17,2 C 14,4 C 80 % 1023,6 hPa 0,0 l/m 2 min 0 min 416 W/m 6,8 km/h (2 Bft) 91,49 %
26.06.2018 10:30 14,9 C 17,2 C 13,9 C 79 % 1023,8 hPa 0,0 l/m 2 min 0 min 409 W/m 9,0 km/h (2 Bft) 93,62 %
26.06.2018 10:32 15,0 C 17,2 C 13,9 C 79 % 1023,8 hPa 0,0 l/m 2 min 0 min 492 W/m 15,8 km/h (3 Bft) 95,65 %
26.06.2018 10:34 15,1 C 17,2 C 14,4 C 79 % 1023,8 hPa 0,0 l/m 2 min 0 min 689 W/m 11,3 km/h (2 Bft) 93,62 %
26.06.2018 10:36 15,1 C 17,2 C 14,4 C 79 % 1023,7 hPa 0,0 l/m 0 min 0 min 334 W/m 6,8 km/h (2 Bft) 93,62 %
26.06.2018 10:38 15,2 C 17,8 C 14,4 C 79 % 1023,8 hPa 0,0 l/m 2 min 0 min 697 W/m 11,3 km/h (2 Bft) 97,87 %
26.06.2018 10:40 15,2 C 17,8 C 14,4 C 79 % 1023,8 hPa 0,0 l/m 2 min 0 min 714 W/m 11,3 km/h (2 Bft) 95,74 %
26.06.2018 10:42 15,3 C 18,3 C 14,4 C 79 % 1023,8 hPa 0,0 l/m 2 min 0 min 736 W/m 11,3 km/h (2 Bft) 93,62 %
26.06.2018 10:44 15,3 C 17,8 C 14,4 C 78 % 1023,8 hPa 0,0 l/m 2 min 0 min 749 W/m 6,8 km/h (2 Bft) 95,65 %
26.06.2018 10:46 15,4 C 17,8 C 14,4 C 78 % 1023,8 hPa 0,0 l/m 0 min 0 min 326 W/m 11,3 km/h (2 Bft) 95,74 %
26.06.2018 10:48 15,4 C 18,3 C 15,0 C 78 % 1023,8 hPa 0,0 l/m 0 min 0 min 288 W/m 4,5 km/h (1 Bft) 93,62 %
26.06.2018 10:50 15,5 C 18,3 C 14,4 C 78 % 1023,8 hPa 0,0 l/m 2 min 0 min 526 W/m 15,8 km/h (3 Bft) 95,74 %
26.06.2018 10:52 15,6 C 18,3 C 14,4 C 77 % 1023,7 hPa 0,0 l/m 2 min 0 min 597 W/m 13,5 km/h (3 Bft) 95,74 %
26.06.2018 10:54 15,6 C 18,3 C 14,4 C 77 % 1023,8 hPa 0,0 l/m 2 min 0 min 694 W/m 9,0 km/h (2 Bft) 95,74 %
26.06.2018 10:56 15,7 C 17,8 C 15,0 C 77 % 1023,8 hPa 0,0 l/m 2 min 0 min 732 W/m 6,8 km/h (2 Bft) 95,65 %
26.06.2018 10:58 15,7 C 18,3 C 14,4 C 77 % 1023,8 hPa 0,0 l/m 2 min 0 min 809 W/m 9,0 km/h (2 Bft) 95,74 %
26.06.2018 11:00 15,8 C 18,9 C 15,0 C 77 % 1023,7 hPa 0,0 l/m 2 min 0 min 819 W/m 6,8 km/h (2 Bft) 97,87 %
26.06.2018 11:02 15,9 C 18,9 C 15,0 C 77 % 1023,7 hPa 0,0 l/m 2 min 0 min 821 W/m 4,5 km/h (1 Bft) 100,00 %
26.06.2018 11:04 16,0 C 18,9 C 15,0 C 77 % 1023,7 hPa 0,0 l/m 2 min 0 min 827 W/m 9,0 km/h (2 Bft) 100,00 %
26.06.2018 11:06 16,1 C 18,9 C 15,0 C 77 % 1023,7 hPa 0,0 l/m 2 min 0 min 647 W/m 13,5 km/h (3 Bft) 97,83 %
26.06.2018 11:08 16,2 C 19,4 C 15,0 C 76 % 1023,7 hPa 0,0 l/m 2 min 0 min 764 W/m 6,8 km/h (2 Bft) 100,00 %
26.06.2018 11:10 16,3 C 19,4 C 15,0 C 76 % 1023,8 hPa 0,0 l/m 2 min 0 min 812 W/m 9,0 km/h (2 Bft) 95,74 %
26.06.2018 11:12 16,4 C 19,4 C 15,0 C 76 % 1023,8 hPa 0,0 l/m 2 min 0 min 675 W/m 18,0 km/h (3 Bft) 100,00 %
26.06.2018 11:14 16,4 C 19,4 C 15,6 C 75 % 1023,8 hPa 0,0 l/m 2 min 0 min 645 W/m 18,0 km/h (3 Bft) 100,00 %
26.06.2018 11:16 16,5 C 20,6 C 15,6 C 75 % 1023,8 hPa 0,0 l/m 2 min 0 min 780 W/m 13,5 km/h (3 Bft) 97,87 %
26.06.2018 11:18 16,7 C 22,2 C 15,6 C 75 % 1023,8 hPa 0,0 l/m 2 min 0 min 801 W/m 11,3 km/h (2 Bft) 100,00 %
26.06.2018 11:20 16,8 C 24,4 C 15,6 C 75 % 1023,8 hPa 0,0 l/m 2 min 0 min 814 W/m 9,0 km/h (2 Bft) 100,00 %
26.06.2018 11:22 16,9 C 23,9 C 16,1 C 75 % 1023,9 hPa 0,0 l/m 2 min 0 min 772 W/m 9,0 km/h (2 Bft) 100,00 %
26.06.2018 11:24 17,1 C 25,6 C 15,6 C 74 % 1023,9 hPa 0,0 l/m 2 min 0 min 826 W/m 11,3 km/h (2 Bft) 97,87 %
26.06.2018 11:26 17,2 C 25,6 C 16,1 C 74 % 1023,9 hPa 0,0 l/m 2 min 0 min 811 W/m 11,3 km/h (2 Bft) 100,00 %
26.06.2018 11:28 17,4 C 23,9 C 16,1 C 74 % 1023,8 hPa 0,0 l/m 2 min 0 min 835 W/m 6,8 km/h (2 Bft) 100,00 %
26.06.2018 11:30 17,4 C 22,2 C 15,6 C 72 % 1023,8 hPa 0,0 l/m 2 min 0 min 835 W/m 15,8 km/h (3 Bft) 100,00 %
26.06.2018 11:32 17,5 C 21,7 C 15,6 C 71 % 1023,8 hPa 0,0 l/m 2 min 0 min 415 W/m 15,8 km/h (3 Bft) 100,00 %
26.06.2018 11:34 17,6 C 23,3 C 15,6 C 72 % 1023,8 hPa 0,0 l/m 2 min 0 min 634 W/m 11,3 km/h (2 Bft) 100,00 %
26.06.2018 11:36 17,6 C 23,9 C 15,6 C 72 % 1023,8 hPa 0,0 l/m 2 min 0 min 761 W/m 13,5 km/h (3 Bft) 97,14 %
26.06.2018 11:38 17,7 C 23,3 C 15,6 C 71 % 1023,8 hPa 0,0 l/m 2 min 0 min 503 W/m 11,3 km/h (2 Bft) 100,00 %
26.06.2018 11:40 17,7 C 23,9 C 15,6 C 71 % 1023,8 hPa 0,0 l/m 2 min 0 min 650 W/m 11,3 km/h (2 Bft) 100,00 %
26.06.2018 11:42 17,8 C 23,3 C 16,1 C 71 % 1023,9 hPa 0,0 l/m 2 min 0 min 824 W/m 9,0 km/h (2 Bft) 97,87 %
26.06.2018 11:44 17,8 C 23,3 C 15,6 C 70 % 1023,9 hPa 0,0 l/m 2 min 0 min 757 W/m 9,0 km/h (2 Bft) 97,83 %
26.06.2018 11:46 17,9 C 23,9 C 16,1 C 70 % 1023,9 hPa 0,0 l/m 2 min 0 min 762 W/m 6,8 km/h (2 Bft) 95,12 %
26.06.2018 11:48 17,9 C 24,4 C 16,1 C 70 % 1023,8 hPa 0,0 l/m 2 min 0 min 826 W/m 11,3 km/h (2 Bft) 100,00 %
26.06.2018 11:50 18,1 C 26,1 C 16,1 C 71 % 1023,8 hPa 0,0 l/m 2 min 0 min 853 W/m 6,8 km/h (2 Bft) 95,74 %
26.06.2018 11:52 18,2 C 27,2 C 16,7 C 71 % 1023,8 hPa 0,0 l/m 2 min 0 min 871 W/m 9,0 km/h (2 Bft) 100,00 %
26.06.2018 11:54 18,3 C 28,3 C 16,7 C 72 % 1023,8 hPa 0,0 l/m 2 min 0 min 896 W/m 6,8 km/h (2 Bft) 95,74 %
26.06.2018 11:56 18,5 C 27,8 C 16,7 C 71 % 1023,8 hPa 0,0 l/m 2 min 0 min 925 W/m 11,3 km/h (2 Bft) 100,00 %
26.06.2018 11:58 18,7 C 27,2 C 16,1 C 70 % 1023,8 hPa 0,0 l/m 2 min 0 min 944 W/m 15,8 km/h (3 Bft) 100,00 %
26.06.2018 12:00 18,8 C 23,9 C 15,0 C 70 % 1023,8 hPa 0,0 l/m 2 min 0 min 804 W/m 6,8 km/h (2 Bft) 95,74 %
26.06.2018 12:02 18,9 C 23,9 C 13,9 C 70 % 1023,8 hPa 0,0 l/m 2 min 0 min 490 W/m 11,3 km/h (2 Bft) 97,87 %
26.06.2018 12:04 18,9 C 23,3 C 13,9 C 70 % 1023,8 hPa 0,0 l/m 2 min 0 min 726 W/m 15,8 km/h (3 Bft) 95,74 %
26.06.2018 12:08 19,0 C 22,2 C 13,9 C 70 % 1023,8 hPa 0,0 l/m 4 min 0 min 895 W/m 13,5 km/h (3 Bft) 100,00 %
26.06.2018 12:10 19,0 C 20,6 C 13,9 C 69 % 1023,8 hPa 0,0 l/m 2 min 0 min 550 W/m 20,3 km/h (4 Bft) 97,87 %
26.06.2018 12:12 19,0 C 22,2 C 13,9 C 70 % 1023,7 hPa 0,0 l/m 2 min 0 min 532 W/m 9,0 km/h (2 Bft) 97,87 %
26.06.2018 12:14 19,1 C 23,9 C 14,4 C 69 % 1023,8 hPa 0,0 l/m 2 min 0 min 872 W/m 15,8 km/h (3 Bft) 97,87 %
26.06.2018 12:16 19,1 C 25,0 C 14,4 C 69 % 1023,8 hPa 0,0 l/m 2 min 0 min 856 W/m 9,0 km/h (2 Bft) 100,00 %
26.06.2018 12:18 19,1 C 26,1 C 15,0 C 69 % 1023,8 hPa 0,0 l/m 2 min 0 min 855 W/m 13,5 km/h (3 Bft) 100,00 %
26.06.2018 12:20 19,1 C 25,0 C 15,0 C 69 % 1023,7 hPa 0,0 l/m 2 min 0 min 879 W/m 13,5 km/h (3 Bft) 100,00 %
26.06.2018 12:22 19,2 C 25,6 C 15,0 C 69 % 1023,7 hPa 0,0 l/m 2 min 0 min 879 W/m 13,5 km/h (3 Bft) 95,83 %
26.06.2018 12:24 19,2 C 25,6 C 15,0 C 69 % 1023,7 hPa 0,0 l/m 2 min 0 min 787 W/m 13,5 km/h (3 Bft) 97,87 %
26.06.2018 12:26 19,3 C 25,0 C 14,4 C 70 % 1023,7 hPa 0,0 l/m 2 min 0 min 878 W/m 9,0 km/h (2 Bft) 97,87 %
26.06.2018 12:28 19,3 C 26,1 C 14,4 C 69 % 1023,7 hPa 0,0 l/m 2 min 0 min 868 W/m 15,8 km/h (3 Bft) 97,83 %
26.06.2018 12:30 19,3 C 25,0 C 14,4 C 69 % 1023,7 hPa 0,0 l/m 2 min 0 min 862 W/m 11,3 km/h (2 Bft) 97,87 %
26.06.2018 12:32 19,4 C 24,4 C 14,4 C 68 % 1023,7 hPa 0,0 l/m 2 min 0 min 888 W/m 9,0 km/h (2 Bft) 93,62 %
26.06.2018 12:34 19,4 C 25,0 C 14,4 C 69 % 1023,7 hPa 0,0 l/m 2 min 0 min 911 W/m 11,3 km/h (2 Bft) 97,87 %
26.06.2018 12:36 19,4 C 25,6 C 14,4 C 68 % 1023,6 hPa 0,0 l/m 2 min 0 min 793 W/m 20,3 km/h (4 Bft) 97,87 %
26.06.2018 12:38 19,4 C 26,7 C 13,9 C 69 % 1023,6 hPa 0,0 l/m 2 min 0 min 844 W/m 9,0 km/h (2 Bft) 97,87 %
26.06.2018 12:40 19,5 C 26,1 C 13,9 C 69 % 1023,6 hPa 0,0 l/m 2 min 0 min 904 W/m 11,3 km/h (2 Bft) 97,83 %
26.06.2018 12:42 19,6 C 26,1 C 13,9 C 69 % 1023,6 hPa 0,0 l/m 2 min 0 min 888 W/m 9,0 km/h (2 Bft) 93,62 %
26.06.2018 12:44 19,6 C 25,6 C 13,9 C 70 % 1023,5 hPa 0,0 l/m 2 min 0 min 873 W/m 11,3 km/h (2 Bft) 97,87 %
26.06.2018 12:46 19,6 C 23,9 C 13,3 C 70 % 1023,6 hPa 0,0 l/m 2 min 0 min 879 W/m 9,0 km/h (2 Bft) 95,74 %
26.06.2018 12:48 19,6 C 23,3 C 13,9 C 70 % 1023,5 hPa 0,0 l/m 2 min 0 min 888 W/m 6,8 km/h (2 Bft) 95,74 %
26.06.2018 12:50 19,7 C 23,3 C 13,9 C 71 % 1023,5 hPa 0,0 l/m 2 min 0 min 881 W/m 11,3 km/h (2 Bft) 95,74 %
26.06.2018 12:52 19,7 C 23,3 C 13,3 C 69 % 1023,6 hPa 0,0 l/m 2 min 0 min 865 W/m 11,3 km/h (2 Bft) 93,48 %
26.06.2018 12:54 19,7 C 23,3 C 13,9 C 69 % 1023,6 hPa 0,0 l/m 2 min 0 min 879 W/m 11,3 km/h (2 Bft) 91,49 %
26.06.2018 12:56 19,7 C 22,2 C 13,9 C 70 % 1023,5 hPa 0,0 l/m 2 min 0 min 888 W/m 11,3 km/h (2 Bft) 93,62 %
26.06.2018 12:58 19,7 C 21,1 C 13,9 C 68 % 1023,5 hPa 0,0 l/m 2 min 0 min 887 W/m 11,3 km/h (2 Bft) 93,62 %
26.06.2018 13:00 19,7 C 21,1 C 13,9 C 69 % 1023,5 hPa 0,0 l/m 2 min 0 min 882 W/m 9,0 km/h (2 Bft) 91,49 %
26.06.2018 13:02 19,7 C 22,2 C 13,3 C 70 % 1023,6 hPa 0,0 l/m 2 min 0 min 876 W/m 9,0 km/h (2 Bft) 91,49 %
26.06.2018 13:04 19,7 C 22,8 C 13,3 C 70 % 1023,5 hPa 0,0 l/m 2 min 0 min 883 W/m 13,5 km/h (3 Bft) 93,48 %
26.06.2018 13:06 19,7 C 22,8 C 13,9 C 70 % 1023,5 hPa 0,0 l/m 2 min 0 min 889 W/m 13,5 km/h (3 Bft) 93,62 %
26.06.2018 13:08 19,7 C 23,3 C 13,9 C 69 % 1023,5 hPa 0,0 l/m 2 min 0 min 892 W/m 11,3 km/h (2 Bft) 93,62 %
26.06.2018 13:10 19,7 C 23,9 C 13,9 C 70 % 1023,4 hPa 0,0 l/m 2 min 0 min 882 W/m 11,3 km/h (2 Bft) 93,62 %
26.06.2018 13:12 19,7 C 25,6 C 13,3 C 70 % 1023,4 hPa 0,0 l/m 2 min 0 min 902 W/m 11,3 km/h (2 Bft) 95,74 %
26.06.2018 13:14 19,7 C 25,6 C 13,3 C 70 % 1023,4 hPa 0,0 l/m 2 min 0 min 924 W/m 9,0 km/h (2 Bft) 93,62 %
26.06.2018 13:16 19,6 C 25,0 C 13,9 C 70 % 1023,4 hPa 0,0 l/m 2 min 0 min 902 W/m 15,8 km/h (3 Bft) 91,30 %
26.06.2018 13:18 19,6 C 25,0 C 13,3 C 70 % 1023,5 hPa 0,0 l/m 2 min 0 min 899 W/m 15,8 km/h (3 Bft) 93,62 %
26.06.2018 13:20 19,6 C 22,8 C 13,9 C 69 % 1023,5 hPa 0,0 l/m 2 min 0 min 898 W/m 9,0 km/h (2 Bft) 93,62 %
26.06.2018 13:22 19,5 C 22,2 C 13,3 C 69 % 1023,5 hPa 0,0 l/m 2 min 0 min 893 W/m 9,0 km/h (2 Bft) 95,74 %
26.06.2018 13:24 19,5 C 21,7 C 13,9 C 69 % 1023,5 hPa 0,0 l/m 2 min 0 min 901 W/m 11,3 km/h (2 Bft) 91,49 %
26.06.2018 13:26 19,5 C 22,2 C 13,9 C 70 % 1023,5 hPa 0,0 l/m 2 min 0 min 902 W/m 9,0 km/h (2 Bft) 95,74 %
26.06.2018 13:28 19,5 C 22,2 C 13,9 C 71 % 1023,5 hPa 0,0 l/m 2 min 0 min 922 W/m 9,0 km/h (2 Bft) 93,48 %
26.06.2018 13:30 19,5 C 22,2 C 13,3 C 71 % 1023,5 hPa 0,0 l/m 2 min 0 min 936 W/m 4,5 km/h (1 Bft) 95,74 %
26.06.2018 13:32 19,5 C 20,6 C 13,3 C 71 % 1023,5 hPa 0,0 l/m 2 min 0 min 960 W/m 9,0 km/h (2 Bft) 95,74 %
26.06.2018 13:34 19,4 C 19,4 C 13,3 C 71 % 1023,5 hPa 0,0 l/m 2 min 0 min 967 W/m 9,0 km/h (2 Bft) 93,62 %
26.06.2018 13:36 19,4 C 17,8 C 13,3 C 71 % 1023,5 hPa 0,0 l/m 2 min 0 min 974 W/m 15,8 km/h (3 Bft) 97,87 %
26.06.2018 13:38 19,4 C 17,2 C 13,3 C 71 % 1023,5 hPa 0,0 l/m 2 min 0 min 646 W/m 9,0 km/h (2 Bft) 97,83 %
26.06.2018 13:40 19,4 C 17,2 C 13,9 C 72 % 1023,5 hPa 0,0 l/m 2 min 0 min 573 W/m 4,5 km/h (1 Bft) 97,87 %
26.06.2018 13:42 19,4 C 16,7 C 13,3 C 72 % 1023,6 hPa 0,0 l/m 2 min 0 min 534 W/m 9,0 km/h (2 Bft) 95,74 %
26.06.2018 13:44 19,3 C 16,1 C 13,3 C 72 % 1023,6 hPa 0,0 l/m 2 min 0 min 532 W/m 11,3 km/h (2 Bft) 100,00 %
26.06.2018 13:46 19,2 C 16,1 C 13,3 C 71 % 1023,6 hPa 0,0 l/m 2 min 0 min 570 W/m 15,8 km/h (3 Bft) 100,00 %
26.06.2018 13:48 19,1 C 16,1 C 13,3 C 71 % 1023,6 hPa 0,0 l/m 2 min 0 min 461 W/m 11,3 km/h (2 Bft) 100,00 %
26.06.2018 13:50 19,1 C 16,1 C 13,3 C 71 % 1023,7 hPa 0,0 l/m 2 min 0 min 639 W/m 11,3 km/h (2 Bft) 100,00 %
26.06.2018 13:52 19,0 C 16,7 C 13,3 C 72 % 1023,7 hPa 0,0 l/m 2 min 0 min 1100 W/m 6,8 km/h (2 Bft) 95,65 %
26.06.2018 13:54 18,9 C 16,7 C 13,3 C 72 % 1023,7 hPa 0,0 l/m 2 min 0 min 564 W/m 18,0 km/h (3 Bft) 100,00 %
26.06.2018 13:56 18,9 C 16,7 C 13,3 C 72 % 1023,7 hPa 0,0 l/m 2 min 0 min 515 W/m 11,3 km/h (2 Bft) 100,00 %
26.06.2018 13:58 18,8 C 16,1 C 12,8 C 72 % 1023,7 hPa 0,0 l/m 2 min 0 min 528 W/m 18,0 km/h (3 Bft) 100,00 %
26.06.2018 14:00 18,7 C 16,7 C 13,3 C 72 % 1023,6 hPa 0,0 l/m 2 min 0 min 616 W/m 18,0 km/h (3 Bft) 100,00 %
26.06.2018 14:02 18,7 C 16,7 C 13,3 C 73 % 1023,6 hPa 0,0 l/m 2 min 0 min 1197 W/m 13,5 km/h (3 Bft) 96,15 %
26.06.2018 14:04 18,6 C 16,7 C 13,9 C 72 % 1023,6 hPa 0,0 l/m 2 min 0 min 632 W/m 13,5 km/h (3 Bft) 100,00 %
26.06.2018 14:06 18,6 C 16,7 C 13,9 C 73 % 1023,6 hPa 0,0 l/m 2 min 0 min 655 W/m 9,0 km/h (2 Bft) 100,00 %
26.06.2018 14:08 18,6 C 17,2 C 13,9 C 74 % 1023,6 hPa 0,0 l/m 2 min 0 min 752 W/m 11,3 km/h (2 Bft) 100,00 %
26.06.2018 14:10 18,5 C 17,2 C 13,9 C 73 % 1023,6 hPa 0,0 l/m 2 min 0 min 752 W/m 11,3 km/h (2 Bft) 100,00 %
26.06.2018 14:12 18,6 C 17,8 C 13,9 C 73 % 1023,5 hPa 0,0 l/m 2 min 0 min 912 W/m 9,0 km/h (2 Bft) 100,00 %
26.06.2018 14:14 18,6 C 18,3 C 14,4 C 74 % 1023,5 hPa 0,0 l/m 2 min 0 min 1032 W/m 11,3 km/h (2 Bft) 100,00 %
26.06.2018 14:16 18,5 C 17,8 C 14,4 C 73 % 1023,5 hPa 0,0 l/m 2 min 0 min 608 W/m 13,5 km/h (3 Bft) 100,00 %
26.06.2018 14:18 18,5 C 18,9 C 14,4 C 73 % 1023,5 hPa 0,0 l/m 2 min 0 min 510 W/m 11,3 km/h (2 Bft) 100,00 %
26.06.2018 14:20 18,5 C 19,4 C 14,4 C 73 % 1023,5 hPa 0,0 l/m 2 min 0 min 1021 W/m 11,3 km/h (2 Bft) 100,00 %
26.06.2018 14:22 18,5 C 19,4 C 15,0 C 74 % 1023,5 hPa 0,0 l/m 2 min 0 min 986 W/m 15,8 km/h (3 Bft) 100,00 %
26.06.2018 14:24 18,6 C 20,0 C 14,4 C 74 % 1023,4 hPa 0,0 l/m 2 min 0 min 981 W/m 24,8 km/h (4 Bft) 100,00 %
26.06.2018 14:26 18,6 C 20,0 C 15,0 C 73 % 1023,5 hPa 0,0 l/m 2 min 0 min 986 W/m 20,3 km/h (4 Bft) 100,00 %
26.06.2018 14:28 18,6 C 20,0 C 15,0 C 73 % 1023,5 hPa 0,0 l/m 2 min 0 min 1009 W/m 11,3 km/h (2 Bft) 100,00 %
26.06.2018 14:30 18,6 C 19,4 C 15,0 C 73 % 1023,5 hPa 0,0 l/m 2 min 0 min 1019 W/m 15,8 km/h (3 Bft) 100,00 %
26.06.2018 14:32 18,7 C 20,0 C 15,0 C 73 % 1023,5 hPa 0,0 l/m 2 min 0 min 1030 W/m 9,0 km/h (2 Bft) 100,00 %
26.06.2018 14:34 18,7 C 20,6 C 15,6 C 73 % 1023,5 hPa 0,0 l/m 2 min 0 min 1040 W/m 9,0 km/h (2 Bft) 100,00 %
26.06.2018 14:36 18,7 C 20,6 C 15,6 C 73 % 1023,5 hPa 0,0 l/m 2 min 0 min 1081 W/m 13,5 km/h (3 Bft) 100,00 %
26.06.2018 14:38 18,8 C 20,6 C 15,0 C 73 % 1023,5 hPa 0,0 l/m 2 min 0 min 1033 W/m 15,8 km/h (3 Bft) 100,00 %
26.06.2018 14:40 18,9 C 20,6 C 15,0 C 73 % 1023,5 hPa 0,0 l/m 2 min 0 min 804 W/m 11,3 km/h (2 Bft) 100,00 %
26.06.2018 14:42 18,9 C 20,0 C 15,6 C 73 % 1023,5 hPa 0,0 l/m 2 min 0 min 690 W/m 6,8 km/h (2 Bft) 100,00 %
26.06.2018 14:44 19,0 C 20,0 C 15,6 C 74 % 1023,5 hPa 0,0 l/m 2 min 0 min 899 W/m 11,3 km/h (2 Bft) 100,00 %
26.06.2018 14:46 19,1 C 20,0 C 15,6 C 73 % 1023,4 hPa 0,0 l/m 2 min 0 min 980 W/m 9,0 km/h (2 Bft) 100,00 %
26.06.2018 14:48 19,1 C 20,0 C 15,6 C 73 % 1023,4 hPa 0,0 l/m 2 min 0 min 976 W/m 13,5 km/h (3 Bft) 96,55 %
26.06.2018 14:50 19,2 C 20,6 C 16,7 C 73 % 1023,3 hPa 0,0 l/m 2 min 0 min 947 W/m 9,0 km/h (2 Bft) 100,00 %
26.06.2018 14:52 19,2 C 20,0 C 16,7 C 72 % 1023,3 hPa 0,0 l/m 2 min 0 min 879 W/m 18,0 km/h (3 Bft) 98,08 %
26.06.2018 14:54 19,2 C 20,0 C 17,2 C 72 % 1023,3 hPa 0,0 l/m 2 min 0 min 898 W/m 13,5 km/h (3 Bft) 100,00 %
26.06.2018 14:56 19,3 C 20,0 C 17,2 C 72 % 1023,4 hPa 0,0 l/m 2 min 0 min 894 W/m 9,0 km/h (2 Bft) 100,00 %
26.06.2018 14:58 19,3 C 20,0 C 17,2 C 72 % 1023,4 hPa 0,0 l/m 2 min 0 min 896 W/m 11,3 km/h (2 Bft) 100,00 %
26.06.2018 15:00 19,3 C 20,0 C 17,2 C 72 % 1023,4 hPa 0,0 l/m 2 min 0 min 818 W/m 15,8 km/h (3 Bft) 100,00 %
26.06.2018 15:02 19,3 C 20,0 C 17,2 C 72 % 1023,3 hPa 0,0 l/m 2 min 0 min 880 W/m 11,3 km/h (2 Bft) 100,00 %
26.06.2018 15:04 19,4 C 19,4 C 17,2 C 72 % 1023,4 hPa 0,0 l/m 2 min 0 min 897 W/m 13,5 km/h (3 Bft) 100,00 %
26.06.2018 15:06 19,4 C 19,4 C 17,2 C 71 % 1023,5 hPa 0,0 l/m 2 min 0 min 906 W/m 11,3 km/h (2 Bft) 94,44 %
26.06.2018 15:08 19,4 C 19,4 C 17,2 C 71 % 1023,4 hPa 0,0 l/m 2 min 0 min 907 W/m 9,0 km/h (2 Bft) 100,00 %
26.06.2018 15:10 19,4 C 20,0 C 17,2 C 72 % 1023,4 hPa 0,0 l/m 2 min 0 min 899 W/m 13,5 km/h (3 Bft) 100,00 %
26.06.2018 15:12 19,4 C 20,0 C 17,8 C 72 % 1023,3 hPa 0,0 l/m 2 min 0 min 888 W/m 11,3 km/h (2 Bft) 97,87 %
26.06.2018 15:14 19,5 C 20,0 C 17,8 C 71 % 1023,3 hPa 0,0 l/m 2 min 0 min 882 W/m 13,5 km/h (3 Bft) 95,65 %
26.06.2018 15:16 19,6 C 20,0 C 17,8 C 72 % 1023,4 hPa 0,0 l/m 2 min 0 min 908 W/m 20,3 km/h (4 Bft) 95,74 %
26.06.2018 15:18 19,6 C 20,0 C 17,8 C 71 % 1023,4 hPa 0,0 l/m 2 min 0 min 880 W/m 9,0 km/h (2 Bft) 97,87 %
26.06.2018 15:20 19,6 C 20,6 C 17,8 C 71 % 1023,3 hPa 0,0 l/m 2 min 0 min 867 W/m 13,5 km/h (3 Bft) 95,74 %
26.06.2018 15:22 19,6 C 20,0 C 17,8 C 71 % 1023,3 hPa 0,0 l/m 2 min 0 min 885 W/m 13,5 km/h (3 Bft) 97,87 %
26.06.2018 15:24 19,6 C 19,4 C 17,8 C 70 % 1023,3 hPa 0,0 l/m 2 min 0 min 864 W/m 15,8 km/h (3 Bft) 97,87 %
26.06.2018 15:26 19,6 C 20,0 C 17,8 C 71 % 1023,3 hPa 0,0 l/m 2 min 0 min 864 W/m 9,0 km/h (2 Bft) 93,48 %
26.06.2018 15:28 19,7 C 20,0 C 17,8 C 70 % 1023,2 hPa 0,0 l/m 2 min 0 min 876 W/m 15,8 km/h (3 Bft) 97,87 %
26.06.2018 15:30 19,7 C 20,0 C 17,8 C 71 % 1023,2 hPa 0,0 l/m 2 min 0 min 868 W/m 9,0 km/h (2 Bft) 95,74 %
26.06.2018 15:32 19,7 C 20,6 C 17,8 C 71 % 1023,2 hPa 0,0 l/m 2 min 0 min 871 W/m 13,5 km/h (3 Bft) 97,87 %
26.06.2018 15:34 19,7 C 21,1 C 17,8 C 71 % 1023,1 hPa 0,0 l/m 2 min 0 min 808 W/m 11,3 km/h (2 Bft) 97,87 %
26.06.2018 15:36 19,8 C 21,1 C 17,8 C 71 % 1023,1 hPa 0,0 l/m 2 min 0 min 858 W/m 6,8 km/h (2 Bft) 95,74 %
26.06.2018 15:38 19,8 C 21,7 C 17,8 C 71 % 1023,1 hPa 0,0 l/m 2 min 0 min 863 W/m 11,3 km/h (2 Bft) 93,48 %
26.06.2018 15:40 19,9 C 21,7 C 17,8 C 71 % 1023,2 hPa 0,0 l/m 2 min 0 min 835 W/m 15,8 km/h (3 Bft) 93,62 %
26.06.2018 15:42 19,9 C 21,1 C 17,8 C 70 % 1023,2 hPa 0,0 l/m 2 min 0 min 830 W/m 20,3 km/h (4 Bft) 93,62 %
26.06.2018 15:44 19,9 C 21,1 C 17,8 C 70 % 1023,2 hPa 0,0 l/m 2 min 0 min 817 W/m 15,8 km/h (3 Bft) 95,74 %
26.06.2018 15:46 19,9 C 22,2 C 17,8 C 70 % 1023,3 hPa 0,0 l/m 2 min 0 min 851 W/m 13,5 km/h (3 Bft) 97,87 %
26.06.2018 15:48 19,9 C 22,2 C 17,8 C 70 % 1023,3 hPa 0,0 l/m 2 min 0 min 845 W/m 11,3 km/h (2 Bft) 95,74 %
26.06.2018 15:50 20,0 C 23,3 C 17,8 C 70 % 1023,3 hPa 0,0 l/m 2 min 0 min 858 W/m 11,3 km/h (2 Bft) 95,65 %
26.06.2018 15:52 20,0 C 25,0 C 17,8 C 70 % 1023,3 hPa 0,0 l/m 2 min 0 min 858 W/m 15,8 km/h (3 Bft) 93,75 %
26.06.2018 15:54 20,1 C 25,0 C 17,8 C 70 % 1023,2 hPa 0,0 l/m 2 min 0 min 802 W/m 15,8 km/h (3 Bft) 95,74 %
26.06.2018 15:56 20,1 C 23,9 C 17,8 C 70 % 1023,2 hPa 0,0 l/m 2 min 0 min 817 W/m 15,8 km/h (3 Bft) 95,74 %
26.06.2018 15:58 20,1 C 23,3 C 18,3 C 70 % 1023,3 hPa 0,0 l/m 2 min 0 min 854 W/m 11,3 km/h (2 Bft) 95,74 %
26.06.2018 16:00 20,1 C 23,3 C 18,3 C 69 % 1023,2 hPa 0,0 l/m 2 min 0 min 831 W/m 13,5 km/h (3 Bft) 95,74 %
26.06.2018 16:02 20,2 C 23,9 C 18,3 C 70 % 1023,2 hPa 0,0 l/m 2 min 0 min 819 W/m 6,8 km/h (2 Bft) 93,48 %
26.06.2018 16:04 20,2 C 25,0 C 18,3 C 70 % 1023,2 hPa 0,0 l/m 2 min 0 min 823 W/m 11,3 km/h (2 Bft) 95,74 %
26.06.2018 16:06 20,3 C 25,0 C 18,3 C 70 % 1023,2 hPa 0,0 l/m 2 min 0 min 825 W/m 15,8 km/h (3 Bft) 93,62 %
26.06.2018 16:08 20,3 C 24,4 C 17,8 C 70 % 1023,2 hPa 0,0 l/m 2 min 0 min 801 W/m 9,0 km/h (2 Bft) 95,74 %
26.06.2018 16:10 20,3 C 24,4 C 17,8 C 70 % 1023,1 hPa 0,0 l/m 2 min 0 min 810 W/m 9,0 km/h (2 Bft) 95,74 %
26.06.2018 16:12 20,4 C 25,0 C 18,3 C 70 % 1023,1 hPa 0,0 l/m 2 min 0 min 794 W/m 6,8 km/h (2 Bft) 91,49 %
26.06.2018 16:14 20,4 C 25,0 C 18,3 C 70 % 1023,2 hPa 0,0 l/m 2 min 0 min 777 W/m 9,0 km/h (2 Bft) 97,83 %
26.06.2018 16:16 20,5 C 25,0 C 18,3 C 70 % 1023,2 hPa 0,0 l/m 2 min 0 min 789 W/m 18,0 km/h (3 Bft) 95,74 %
26.06.2018 16:18 20,6 C 23,3 C 18,3 C 69 % 1023,1 hPa 0,0 l/m 2 min 0 min 788 W/m 18,0 km/h (3 Bft) 93,62 %
26.06.2018 16:20 20,6 C 23,9 C 18,3 C 69 % 1023,1 hPa 0,0 l/m 2 min 0 min 807 W/m 15,8 km/h (3 Bft) 93,62 %
26.06.2018 16:22 20,6 C 23,3 C 18,9 C 69 % 1023,0 hPa 0,0 l/m 2 min 0 min 816 W/m 9,0 km/h (2 Bft) 95,74 %
26.06.2018 16:24 20,7 C 24,4 C 18,9 C 69 % 1023,0 hPa 0,0 l/m 2 min 0 min 810 W/m 9,0 km/h (2 Bft) 95,65 %
26.06.2018 16:26 20,7 C 25,0 C 18,9 C 70 % 1023,0 hPa 0,0 l/m 2 min 0 min 798 W/m 9,0 km/h (2 Bft) 95,74 %
26.06.2018 16:28 20,8 C 24,4 C 18,9 C 70 % 1023,0 hPa 0,0 l/m 2 min 0 min 817 W/m 11,3 km/h (2 Bft) 95,74 %
26.06.2018 16:30 20,8 C 23,3 C 18,9 C 70 % 1023,0 hPa 0,0 l/m 2 min 0 min 677 W/m 9,0 km/h (2 Bft) 97,87 %
26.06.2018 16:32 20,9 C 23,3 C 18,9 C 69 % 1023,0 hPa 0,0 l/m 2 min 0 min 418 W/m 6,8 km/h (2 Bft) 97,87 %
26.06.2018 16:34 20,9 C 23,3 C 18,9 C 68 % 1023,0 hPa 0,0 l/m 2 min 0 min 500 W/m 13,5 km/h (3 Bft) 97,87 %
26.06.2018 16:36 20,9 C 23,9 C 18,9 C 68 % 1022,9 hPa 0,0 l/m 2 min 0 min 770 W/m 9,0 km/h (2 Bft) 95,65 %
26.06.2018 16:38 21,0 C 23,9 C 18,9 C 68 % 1022,9 hPa 0,0 l/m 2 min 0 min 764 W/m 9,0 km/h (2 Bft) 97,87 %
26.06.2018 16:40 21,0 C 24,4 C 18,9 C 69 % 1022,9 hPa 0,0 l/m 2 min 0 min 749 W/m 9,0 km/h (2 Bft) 100,00 %
26.06.2018 16:42 21,1 C 24,4 C 18,9 C 68 % 1022,9 hPa 0,0 l/m 2 min 0 min 741 W/m 6,8 km/h (2 Bft) 100,00 %
26.06.2018 16:44 21,1 C 25,0 C 18,9 C 69 % 1022,9 hPa 0,0 l/m 2 min 0 min 751 W/m 9,0 km/h (2 Bft) 100,00 %
26.06.2018 16:46 21,2 C 24,4 C 18,9 C 68 % 1022,9 hPa 0,0 l/m 2 min 0 min 737 W/m 9,0 km/h (2 Bft) 100,00 %
26.06.2018 16:48 21,3 C 25,0 C 19,4 C 69 % 1022,9 hPa 0,0 l/m 2 min 0 min 736 W/m 6,8 km/h (2 Bft) 97,83 %
26.06.2018 16:50 21,3 C 25,0 C 19,4 C 69 % 1022,9 hPa 0,0 l/m 2 min 0 min 726 W/m 9,0 km/h (2 Bft) 100,00 %
26.06.2018 16:52 21,4 C 25,0 C 19,4 C 69 % 1022,9 hPa 0,0 l/m 2 min 0 min 724 W/m 9,0 km/h (2 Bft) 100,00 %
26.06.2018 16:54 21,4 C 25,6 C 19,4 C 69 % 1022,8 hPa 0,0 l/m 2 min 0 min 731 W/m 4,5 km/h (1 Bft) 100,00 %
26.06.2018 16:56 21,5 C 25,6 C 19,4 C 69 % 1022,9 hPa 0,0 l/m 2 min 0 min 726 W/m 9,0 km/h (2 Bft) 97,87 %
26.06.2018 16:58 21,6 C 25,0 C 19,4 C 68 % 1022,8 hPa 0,0 l/m 2 min 0 min 715 W/m 6,8 km/h (2 Bft) 100,00 %
26.06.2018 17:00 21,7 C 25,0 C 19,4 C 67 % 1022,8 hPa 0,0 l/m 2 min 0 min 720 W/m 11,3 km/h (2 Bft) 100,00 %
26.06.2018 17:02 21,7 C 25,0 C 19,4 C 67 % 1022,8 hPa 0,0 l/m 2 min 0 min 705 W/m 9,0 km/h (2 Bft) 100,00 %
26.06.2018 17:04 21,8 C 25,0 C 19,4 C 68 % 1022,8 hPa 0,0 l/m 2 min 0 min 695 W/m 6,8 km/h (2 Bft) 100,00 %
26.06.2018 17:06 21,8 C 25,0 C 19,4 C 67 % 1022,8 hPa 0,0 l/m 2 min 0 min 687 W/m 6,8 km/h (2 Bft) 100,00 %
26.06.2018 17:08 21,9 C 25,0 C 19,4 C 68 % 1022,7 hPa 0,0 l/m 2 min 0 min 695 W/m 6,8 km/h (2 Bft) 100,00 %
26.06.2018 17:10 21,9 C 25,0 C 19,4 C 68 % 1022,7 hPa 0,0 l/m 2 min 0 min 697 W/m 6,8 km/h (2 Bft) 100,00 %
26.06.2018 17:12 22,0 C 25,0 C 20,0 C 67 % 1022,7 hPa 0,0 l/m 2 min 0 min 690 W/m 6,8 km/h (2 Bft) 100,00 %
26.06.2018 17:14 22,1 C 24,4 C 20,0 C 67 % 1022,6 hPa 0,0 l/m 2 min 0 min 667 W/m 9,0 km/h (2 Bft) 100,00 %
26.06.2018 17:16 22,2 C 25,0 C 20,0 C 67 % 1022,6 hPa 0,0 l/m 2 min 0 min 681 W/m 11,3 km/h (2 Bft) 100,00 %
26.06.2018 17:18 22,2 C 24,4 C 20,0 C 66 % 1022,6 hPa 0,0 l/m 2 min 0 min 662 W/m 9,0 km/h (2 Bft) 100,00 %
26.06.2018 17:20 22,2 C 24,4 C 20,0 C 66 % 1022,6 hPa 0,0 l/m 2 min 0 min 621 W/m 9,0 km/h (2 Bft) 100,00 %
26.06.2018 17:22 22,3 C 23,9 C 20,0 C 66 % 1022,5 hPa 0,0 l/m 2 min 0 min 621 W/m 9,0 km/h (2 Bft) 100,00 %
26.06.2018 17:24 22,3 C 23,9 C 20,0 C 66 % 1022,5 hPa 0,0 l/m 2 min 0 min 639 W/m 9,0 km/h (2 Bft) 100,00 %
26.06.2018 17:26 22,3 C 24,4 C 20,0 C 66 % 1022,5 hPa 0,0 l/m 2 min 0 min 657 W/m 4,5 km/h (1 Bft) 100,00 %
26.06.2018 17:28 22,3 C 23,9 C 20,0 C 66 % 1022,5 hPa 0,0 l/m 2 min 0 min 644 W/m 11,3 km/h (2 Bft) 100,00 %
26.06.2018 17:30 22,3 C 23,9 C 20,0 C 66 % 1022,5 hPa 0,0 l/m 2 min 0 min 647 W/m 11,3 km/h (2 Bft) 100,00 %
26.06.2018 17:32 22,3 C 23,9 C 20,0 C 66 % 1022,5 hPa 0,0 l/m 2 min 0 min 640 W/m 11,3 km/h (2 Bft) 100,00 %
26.06.2018 17:34 22,3 C 23,9 C 20,0 C 67 % 1022,5 hPa 0,0 l/m 2 min 0 min 622 W/m 6,8 km/h (2 Bft) 100,00 %
26.06.2018 17:36 22,4 C 23,9 C 20,0 C 66 % 1022,5 hPa 0,0 l/m 2 min 0 min 632 W/m 9,0 km/h (2 Bft) 97,87 %
26.06.2018 17:38 22,4 C 23,9 C 20,0 C 66 % 1022,4 hPa 0,0 l/m 2 min 0 min 626 W/m 6,8 km/h (2 Bft) 97,87 %
26.06.2018 17:40 22,4 C 23,9 C 20,0 C 66 % 1022,5 hPa 0,0 l/m 2 min 0 min 613 W/m 9,0 km/h (2 Bft) 95,74 %
26.06.2018 17:42 22,4 C 23,3 C 20,0 C 65 % 1022,4 hPa 0,0 l/m 2 min 0 min 616 W/m 11,3 km/h (2 Bft) 97,87 %
26.06.2018 17:44 22,4 C 23,3 C 20,0 C 65 % 1022,5 hPa 0,0 l/m 2 min 0 min 612 W/m 11,3 km/h (2 Bft) 95,74 %
26.06.2018 17:46 22,3 C 22,8 C 20,0 C 65 % 1022,5 hPa 0,0 l/m 2 min 0 min 613 W/m 18,0 km/h (3 Bft) 95,65 %
26.06.2018 17:48 22,3 C 22,8 C 20,0 C 66 % 1022,4 hPa 0,0 l/m 2 min 0 min 605 W/m 9,0 km/h (2 Bft) 97,87 %
26.06.2018 17:50 22,3 C 22,2 C 20,0 C 66 % 1022,4 hPa 0,0 l/m 2 min 0 min 591 W/m 13,5 km/h (3 Bft) 97,87 %
26.06.2018 17:52 22,3 C 22,8 C 20,0 C 66 % 1022,4 hPa 0,0 l/m 2 min 0 min 584 W/m 6,8 km/h (2 Bft) 97,87 %
26.06.2018 17:54 22,3 C 22,2 C 20,0 C 66 % 1022,4 hPa 0,0 l/m 2 min 0 min 587 W/m 9,0 km/h (2 Bft) 97,87 %
26.06.2018 17:56 22,3 C 22,8 C 20,0 C 66 % 1022,4 hPa 0,0 l/m 2 min 0 min 582 W/m 15,8 km/h (3 Bft) 95,74 %
26.06.2018 17:58 22,3 C 22,8 C 20,0 C 66 % 1022,5 hPa 0,0 l/m 2 min 0 min 574 W/m 9,0 km/h (2 Bft) 97,83 %
26.06.2018 18:00 22,3 C 22,8 C 20,0 C 66 % 1022,5 hPa 0,0 l/m 2 min 0 min 578 W/m 6,8 km/h (2 Bft) 97,87 %
26.06.2018 18:02 22,3 C 22,8 C 20,0 C 66 % 1022,5 hPa 0,0 l/m 2 min 0 min 574 W/m 9,0 km/h (2 Bft) 97,87 %
26.06.2018 18:04 22,3 C 22,8 C 20,0 C 66 % 1022,5 hPa 0,0 l/m 2 min 0 min 563 W/m 6,8 km/h (2 Bft) 95,74 %
26.06.2018 18:08 22,3 C 23,3 C 20,6 C 67 % 1022,6 hPa 0,0 l/m 4 min 0 min 538 W/m 6,8 km/h (2 Bft) 97,94 %
26.06.2018 18:10 22,3 C 22,8 C 20,6 C 66 % 1022,5 hPa 0,0 l/m 2 min 0 min 552 W/m 6,8 km/h (2 Bft) 95,65 %
26.06.2018 18:12 22,3 C 22,8 C 20,0 C 66 % 1022,5 hPa 0,0 l/m 2 min 0 min 544 W/m 9,0 km/h (2 Bft) 95,74 %
26.06.2018 18:14 22,3 C 22,8 C 20,0 C 66 % 1022,5 hPa 0,0 l/m 2 min 0 min 532 W/m 11,3 km/h (2 Bft) 97,87 %
26.06.2018 18:16 22,3 C 22,8 C 20,0 C 66 % 1022,5 hPa 0,0 l/m 2 min 0 min 514 W/m 6,8 km/h (2 Bft) 97,87 %
26.06.2018 18:18 22,3 C 22,8 C 20,0 C 67 % 1022,5 hPa 0,0 l/m 2 min 0 min 510 W/m 6,8 km/h (2 Bft) 100,00 %
26.06.2018 18:20 22,3 C 22,8 C 20,0 C 67 % 1022,5 hPa 0,0 l/m 2 min 0 min 514 W/m 9,0 km/h (2 Bft) 97,83 %
26.06.2018 18:22 22,3 C 22,8 C 20,6 C 67 % 1022,4 hPa 0,0 l/m 2 min 0 min 502 W/m 6,8 km/h (2 Bft) 97,87 %
26.06.2018 18:24 22,3 C 22,8 C 20,6 C 67 % 1022,5 hPa 0,0 l/m 2 min 0 min 505 W/m 9,0 km/h (2 Bft) 97,87 %
26.06.2018 18:26 22,3 C 22,8 C 20,6 C 66 % 1022,5 hPa 0,0 l/m 2 min 0 min 507 W/m 9,0 km/h (2 Bft) 100,00 %
26.06.2018 18:28 22,3 C 22,8 C 20,6 C 66 % 1022,5 hPa 0,0 l/m 2 min 0 min 498 W/m 9,0 km/h (2 Bft) 100,00 %
26.06.2018 18:30 22,4 C 22,8 C 20,6 C 67 % 1022,5 hPa 0,0 l/m 2 min 0 min 495 W/m 4,5 km/h (1 Bft) 95,74 %
26.06.2018 18:32 22,4 C 22,8 C 20,6 C 67 % 1022,5 hPa 0,0 l/m 2 min 0 min 485 W/m 6,8 km/h (2 Bft) 97,83 %
26.06.2018 18:34 22,4 C 22,8 C 20,6 C 66 % 1022,4 hPa 0,0 l/m 2 min 0 min 480 W/m 9,0 km/h (2 Bft) 97,87 %
26.06.2018 18:36 22,4 C 22,8 C 20,6 C 67 % 1022,4 hPa 0,0 l/m 2 min 0 min 481 W/m 6,8 km/h (2 Bft) 100,00 %
26.06.2018 18:38 22,4 C 22,8 C 20,0 C 67 % 1022,4 hPa 0,0 l/m 2 min 0 min 472 W/m 6,8 km/h (2 Bft) 97,87 %
26.06.2018 18:40 22,4 C 22,8 C 20,0 C 66 % 1022,3 hPa 0,0 l/m 2 min 0 min 471 W/m 9,0 km/h (2 Bft) 95,74 %
26.06.2018 18:42 22,3 C 22,8 C 20,0 C 66 % 1022,3 hPa 0,0 l/m 2 min 0 min 466 W/m 11,3 km/h (2 Bft) 93,62 %
26.06.2018 18:44 22,3 C 22,8 C 20,0 C 66 % 1022,4 hPa 0,0 l/m 2 min 0 min 459 W/m 6,8 km/h (2 Bft) 97,83 %
26.06.2018 18:46 22,3 C 22,8 C 20,0 C 67 % 1022,4 hPa 0,0 l/m 2 min 0 min 451 W/m 9,0 km/h (2 Bft) 97,87 %
26.06.2018 18:48 22,3 C 22,8 C 20,0 C 67 % 1022,4 hPa 0,0 l/m 2 min 0 min 438 W/m 6,8 km/h (2 Bft) 93,62 %
26.06.2018 18:50 22,3 C 22,2 C 20,0 C 66 % 1022,2 hPa 0,0 l/m 2 min 0 min 429 W/m 13,5 km/h (3 Bft) 95,74 %
26.06.2018 18:52 22,3 C 22,2 C 20,6 C 66 % 1022,3 hPa 0,0 l/m 2 min 0 min 428 W/m 6,8 km/h (2 Bft) 95,74 %
26.06.2018 18:54 22,4 C 22,2 C 20,0 C 67 % 1022,3 hPa 0,0 l/m 2 min 0 min 414 W/m 6,8 km/h (2 Bft) 95,74 %
26.06.2018 18:56 22,3 C 22,2 C 20,0 C 66 % 1022,4 hPa 0,0 l/m 2 min 0 min 398 W/m 6,8 km/h (2 Bft) 95,65 %
26.06.2018 18:58 22,3 C 22,2 C 20,0 C 66 % 1022,4 hPa 0,0 l/m 2 min 0 min 403 W/m 9,0 km/h (2 Bft) 93,62 %
26.06.2018 19:00 22,3 C 22,2 C 20,0 C 66 % 1022,3 hPa 0,0 l/m 2 min 0 min 404 W/m 6,8 km/h (2 Bft) 95,74 %
26.06.2018 19:02 22,3 C 22,2 C 20,0 C 67 % 1022,3 hPa 0,0 l/m 2 min 0 min 396 W/m 6,8 km/h (2 Bft) 95,74 %
26.06.2018 19:04 22,2 C 22,2 C 19,4 C 67 % 1022,4 hPa 0,0 l/m 2 min 0 min 396 W/m 6,8 km/h (2 Bft) 95,74 %
26.06.2018 19:06 22,2 C 21,7 C 19,4 C 66 % 1022,4 hPa 0,0 l/m 2 min 0 min 399 W/m 11,3 km/h (2 Bft) 95,74 %
26.06.2018 19:08 22,2 C 21,7 C 19,4 C 67 % 1022,4 hPa 0,0 l/m 2 min 0 min 392 W/m 6,8 km/h (2 Bft) 95,65 %
26.06.2018 19:10 22,1 C 21,7 C 19,4 C 67 % 1022,4 hPa 0,0 l/m 2 min 0 min 377 W/m 6,8 km/h (2 Bft) 93,62 %
26.06.2018 19:12 22,1 C 21,7 C 19,4 C 67 % 1022,4 hPa 0,0 l/m 2 min 0 min 352 W/m 6,8 km/h (2 Bft) 97,87 %
26.06.2018 19:14 22,0 C 21,7 C 19,4 C 67 % 1022,4 hPa 0,0 l/m 2 min 0 min 347 W/m 4,5 km/h (1 Bft) 95,74 %
26.06.2018 19:16 21,9 C 21,7 C 19,4 C 67 % 1022,4 hPa 0,0 l/m 2 min 0 min 371 W/m 6,8 km/h (2 Bft) 95,74 %
26.06.2018 19:18 21,9 C 21,7 C 19,4 C 68 % 1022,4 hPa 0,0 l/m 2 min 0 min 375 W/m 9,0 km/h (2 Bft) 95,74 %
26.06.2018 19:20 21,8 C 21,7 C 18,9 C 68 % 1022,3 hPa 0,0 l/m 2 min 0 min 361 W/m 4,5 km/h (1 Bft) 95,65 %
26.06.2018 19:22 21,8 C 21,1 C 18,9 C 67 % 1022,4 hPa 0,0 l/m 2 min 0 min 340 W/m 4,5 km/h (1 Bft) 93,75 %
26.06.2018 19:24 21,7 C 21,1 C 18,9 C 68 % 1022,4 hPa 0,0 l/m 2 min 0 min 361 W/m 6,8 km/h (2 Bft) 93,62 %
26.06.2018 19:26 21,6 C 21,1 C 18,9 C 68 % 1022,3 hPa 0,0 l/m 2 min 0 min 333 W/m 9,0 km/h (2 Bft) 95,74 %
26.06.2018 19:28 21,5 C 21,1 C 18,9 C 68 % 1022,4 hPa 0,0 l/m 2 min 0 min 322 W/m 9,0 km/h (2 Bft) 93,62 %
26.06.2018 19:30 21,4 C 21,1 C 18,9 C 68 % 1022,4 hPa 0,0 l/m 2 min 0 min 297 W/m 6,8 km/h (2 Bft) 97,83 %
26.06.2018 19:32 21,4 C 21,1 C 18,9 C 69 % 1022,3 hPa 0,0 l/m 2 min 0 min 317 W/m 9,0 km/h (2 Bft) 97,87 %
26.06.2018 19:34 21,3 C 20,6 C 18,9 C 69 % 1022,3 hPa 0,0 l/m 2 min 0 min 312 W/m 6,8 km/h (2 Bft) 95,74 %
26.06.2018 19:36 21,2 C 20,6 C 18,3 C 69 % 1022,4 hPa 0,0 l/m 2 min 0 min 296 W/m 6,8 km/h (2 Bft) 97,87 %
26.06.2018 19:38 21,1 C 20,6 C 18,3 C 69 % 1022,4 hPa 0,0 l/m 2 min 0 min 269 W/m 6,8 km/h (2 Bft) 97,87 %
26.06.2018 19:40 21,1 C 20,0 C 18,3 C 69 % 1022,4 hPa 0,0 l/m 2 min 0 min 239 W/m 4,5 km/h (1 Bft) 97,87 %
26.06.2018 19:42 21,0 C 20,0 C 18,3 C 69 % 1022,3 hPa 0,0 l/m 2 min 0 min 242 W/m 4,5 km/h (1 Bft) 95,65 %
26.06.2018 19:44 20,9 C 20,0 C 18,3 C 69 % 1022,4 hPa 0,0 l/m 2 min 0 min 226 W/m 11,3 km/h (2 Bft) 100,00 %
26.06.2018 19:46 20,8 C 20,0 C 18,3 C 69 % 1022,4 hPa 0,0 l/m 2 min 0 min 226 W/m 6,8 km/h (2 Bft) 100,00 %
26.06.2018 19:48 20,8 C 20,0 C 18,3 C 69 % 1022,4 hPa 0,0 l/m 2 min 0 min 238 W/m 4,5 km/h (1 Bft) 100,00 %
26.06.2018 19:50 20,8 C 20,0 C 18,3 C 70 % 1022,4 hPa 0,0 l/m 2 min 0 min 254 W/m 4,5 km/h (1 Bft) 100,00 %
26.06.2018 19:52 20,7 C 19,4 C 18,3 C 70 % 1022,4 hPa 0,0 l/m 2 min 0 min 238 W/m 4,5 km/h (1 Bft) 97,87 %
26.06.2018 19:54 20,7 C 19,4 C 18,3 C 70 % 1022,4 hPa 0,0 l/m 2 min 0 min 226 W/m 6,8 km/h (2 Bft) 100,00 %
26.06.2018 19:56 20,6 C 19,4 C 18,3 C 70 % 1022,5 hPa 0,0 l/m 2 min 0 min 233 W/m 6,8 km/h (2 Bft) 98,44 %
26.06.2018 19:58 20,5 C 19,4 C 18,3 C 71 % 1022,3 hPa 0,0 l/m 2 min 0 min 195 W/m 4,5 km/h (1 Bft) 100,00 %
26.06.2018 20:00 20,4 C 19,4 C 18,3 C 71 % 1022,4 hPa 0,0 l/m 0 min 0 min 121 W/m 6,8 km/h (2 Bft) 98,31 %
26.06.2018 20:02 20,4 C 19,4 C 18,3 C 71 % 1022,4 hPa 0,0 l/m 0 min 0 min 74 W/m 4,5 km/h (1 Bft) 94,29 %
26.06.2018 20:04 20,3 C 18,9 C 17,8 C 71 % 1022,4 hPa 0,0 l/m 0 min 0 min 67 W/m 6,8 km/h (2 Bft) 98,28 %
26.06.2018 20:06 20,3 C 18,9 C 17,8 C 71 % 1022,4 hPa 0,0 l/m 0 min 0 min 62 W/m 4,5 km/h (1 Bft) 97,87 %
26.06.2018 20:08 20,2 C 18,9 C 17,8 C 71 % 1022,4 hPa 0,0 l/m 0 min 0 min 59 W/m 6,8 km/h (2 Bft) 97,14 %
26.06.2018 20:10 20,2 C 18,9 C 17,8 C 72 % 1022,4 hPa 0,0 l/m 0 min 0 min 59 W/m 6,8 km/h (2 Bft) 97,87 %
26.06.2018 20:12 20,1 C 18,9 C 17,8 C 72 % 1022,4 hPa 0,0 l/m 0 min 0 min 60 W/m 4,5 km/h (1 Bft) 97,87 %
26.06.2018 20:14 20,0 C 18,9 C 17,8 C 72 % 1022,3 hPa 0,0 l/m 0 min 0 min 55 W/m 6,8 km/h (2 Bft) 95,74 %
26.06.2018 20:16 19,9 C 18,9 C 17,8 C 72 % 1022,4 hPa 0,0 l/m 0 min 0 min 57 W/m 6,8 km/h (2 Bft) 96,55 %
26.06.2018 20:18 19,9 C 18,9 C 17,8 C 72 % 1022,4 hPa 0,0 l/m 0 min 0 min 46 W/m 6,8 km/h (2 Bft) 97,37 %
26.06.2018 20:20 19,8 C 18,3 C 17,8 C 72 % 1022,4 hPa 0,0 l/m 0 min 0 min 58 W/m 4,5 km/h (1 Bft) 97,83 %
26.06.2018 20:22 19,8 C 18,3 C 17,8 C 73 % 1022,4 hPa 0,0 l/m 0 min 0 min 54 W/m 4,5 km/h (1 Bft) 97,92 %
26.06.2018 20:24 19,7 C 18,3 C 17,8 C 73 % 1022,4 hPa 0,0 l/m 0 min 0 min 62 W/m 6,8 km/h (2 Bft) 97,87 %
26.06.2018 20:26 19,7 C 18,3 C 17,8 C 73 % 1022,5 hPa 0,0 l/m 0 min 0 min 64 W/m 4,5 km/h (1 Bft) 97,87 %
26.06.2018 20:28 19,6 C 18,3 C 17,8 C 73 % 1022,4 hPa 0,0 l/m 0 min 0 min 65 W/m 6,8 km/h (2 Bft) 95,74 %
26.06.2018 20:30 19,6 C 18,3 C 17,8 C 74 % 1022,4 hPa 0,0 l/m 0 min 0 min 67 W/m 4,5 km/h (1 Bft) 97,83 %
26.06.2018 20:32 19,5 C 18,3 C 17,8 C 74 % 1022,4 hPa 0,0 l/m 0 min 0 min 65 W/m 4,5 km/h (1 Bft) 95,74 %
26.06.2018 20:34 19,4 C 18,3 C 17,8 C 74 % 1022,4 hPa 0,0 l/m 0 min 0 min 59 W/m 9,0 km/h (2 Bft) 97,87 %
26.06.2018 20:36 19,4 C 18,3 C 17,2 C 74 % 1022,4 hPa 0,0 l/m 0 min 0 min 58 W/m 6,8 km/h (2 Bft) 95,74 %
26.06.2018 20:38 19,3 C 18,3 C 17,2 C 74 % 1022,4 hPa 0,0 l/m 0 min 0 min 60 W/m 2,3 km/h (1 Bft) 97,87 %
26.06.2018 20:40 19,3 C 17,8 C 17,2 C 74 % 1022,5 hPa 0,0 l/m 0 min 0 min 59 W/m 4,5 km/h (1 Bft) 97,87 %
26.06.2018 20:42 19,2 C 17,8 C 17,2 C 74 % 1022,4 hPa 0,0 l/m 0 min 0 min 58 W/m 4,5 km/h (1 Bft) 100,00 %
26.06.2018 20:44 19,2 C 17,8 C 17,2 C 74 % 1022,4 hPa 0,0 l/m 0 min 0 min 55 W/m 4,5 km/h (1 Bft) 97,87 %
26.06.2018 20:46 19,2 C 17,8 C 17,2 C 75 % 1022,5 hPa 0,0 l/m 0 min 0 min 52 W/m 4,5 km/h (1 Bft) 100,00 %
26.06.2018 20:48 19,1 C 17,8 C 17,2 C 75 % 1022,5 hPa 0,0 l/m 0 min 0 min 48 W/m 2,3 km/h (1 Bft) 95,74 %
26.06.2018 20:50 19,1 C 17,8 C 17,2 C 75 % 1022,5 hPa 0,0 l/m 0 min 0 min 43 W/m 2,3 km/h (1 Bft) 100,00 %
26.06.2018 20:52 19,0 C 17,8 C 17,2 C 75 % 1022,4 hPa 0,0 l/m 0 min 0 min 39 W/m 0,0 km/h (0 Bft) 97,87 %
26.06.2018 20:54 19,0 C 17,8 C 17,2 C 76 % 1022,5 hPa 0,0 l/m 0 min 0 min 38 W/m 0,0 km/h (0 Bft) 100,00 %
26.06.2018 20:56 18,9 C 17,8 C 17,2 C 76 % 1022,5 hPa 0,0 l/m 0 min 0 min 40 W/m 0,0 km/h (0 Bft) 100,00 %
26.06.2018 20:58 18,9 C 17,2 C 17,2 C 76 % 1022,5 hPa 0,0 l/m 0 min 0 min 39 W/m 0,0 km/h (0 Bft) 100,00 %
26.06.2018 21:00 18,8 C 17,2 C 16,7 C 76 % 1022,5 hPa 0,0 l/m 0 min 0 min 40 W/m 0,0 km/h (0 Bft) 100,00 %
26.06.2018 21:02 18,8 C 17,2 C 16,7 C 76 % 1022,5 hPa 0,0 l/m 0 min 0 min 40 W/m 0,0 km/h (0 Bft) 95,74 %
26.06.2018 21:04 18,7 C 17,2 C 16,7 C 76 % 1022,5 hPa 0,0 l/m 0 min 0 min 38 W/m 4,5 km/h (1 Bft) 100,00 %
26.06.2018 21:06 18,7 C 17,2 C 16,7 C 76 % 1022,4 hPa 0,0 l/m 0 min 0 min 37 W/m 2,3 km/h (1 Bft) 100,00 %
26.06.2018 21:08 18,6 C 17,2 C 16,7 C 76 % 1022,4 hPa 0,0 l/m 0 min 0 min 35 W/m 2,3 km/h (1 Bft) 100,00 %
26.06.2018 21:10 18,6 C 16,7 C 16,7 C 77 % 1022,5 hPa 0,0 l/m 0 min 0 min 32 W/m 2,3 km/h (1 Bft) 100,00 %
26.06.2018 21:12 18,5 C 16,7 C 16,7 C 76 % 1022,5 hPa 0,0 l/m 0 min 0 min 27 W/m 4,5 km/h (1 Bft) 100,00 %
26.06.2018 21:14 18,4 C 16,7 C 16,7 C 77 % 1022,5 hPa 0,0 l/m 0 min 0 min 26 W/m 2,3 km/h (1 Bft) 100,00 %
26.06.2018 21:16 18,4 C 16,7 C 16,7 C 77 % 1022,5 hPa 0,0 l/m 0 min 0 min 26 W/m 2,3 km/h (1 Bft) 97,83 %
26.06.2018 21:18 18,3 C 16,7 C 16,7 C 77 % 1022,5 hPa 0,0 l/m 0 min 0 min 26 W/m 0,0 km/h (0 Bft) 97,87 %
26.06.2018 21:20 18,3 C 16,7 C 16,7 C 77 % 1022,6 hPa 0,0 l/m 0 min 0 min 25 W/m 0,0 km/h (0 Bft) 100,00 %
26.06.2018 21:22 18,2 C 16,7 C 16,7 C 78 % 1022,5 hPa 0,0 l/m 0 min 0 min 25 W/m 4,5 km/h (1 Bft) 100,00 %
26.06.2018 21:24 18,2 C 16,7 C 16,7 C 78 % 1022,5 hPa 0,0 l/m 0 min 0 min 22 W/m 2,3 km/h (1 Bft) 100,00 %
26.06.2018 21:26 18,1 C 16,7 C 16,7 C 78 % 1022,5 hPa 0,0 l/m 0 min 0 min 20 W/m 2,3 km/h (1 Bft) 97,87 %
26.06.2018 21:28 18,1 C 16,1 C 16,1 C 78 % 1022,6 hPa 0,0 l/m 0 min 0 min 19 W/m 4,5 km/h (1 Bft) 95,65 %
26.06.2018 21:30 18,0 C 16,1 C 16,1 C 78 % 1022,5 hPa 0,0 l/m 0 min 0 min 18 W/m 0,0 km/h (0 Bft) 100,00 %
26.06.2018 21:32 17,9 C 16,1 C 16,1 C 78 % 1022,5 hPa 0,0 l/m 0 min 0 min 16 W/m 4,5 km/h (1 Bft) 100,00 %
26.06.2018 21:34 17,9 C 16,1 C 16,1 C 78 % 1022,6 hPa 0,0 l/m 0 min 0 min 16 W/m 2,3 km/h (1 Bft) 100,00 %
26.06.2018 21:36 17,8 C 16,1 C 16,1 C 78 % 1022,6 hPa 0,0 l/m 0 min 0 min 14 W/m 0,0 km/h (0 Bft) 97,87 %
26.06.2018 21:38 17,8 C 16,1 C 16,1 C 79 % 1022,6 hPa 0,0 l/m 0 min 0 min 13 W/m 0,0 km/h (0 Bft) 97,87 %
26.06.2018 21:40 17,7 C 16,1 C 16,1 C 78 % 1022,7 hPa 0,0 l/m 0 min 0 min 12 W/m 0,0 km/h (0 Bft) 97,83 %
26.06.2018 21:42 17,7 C 16,1 C 16,1 C 79 % 1022,6 hPa 0,0 l/m 0 min 0 min 11 W/m 0,0 km/h (0 Bft) 95,74 %
26.06.2018 21:44 17,6 C 16,1 C 16,1 C 79 % 1022,6 hPa 0,0 l/m 0 min 0 min 11 W/m 0,0 km/h (0 Bft) 95,74 %
26.06.2018 21:46 17,6 C 15,6 C 16,1 C 79 % 1022,5 hPa 0,0 l/m 0 min 0 min 9 W/m 0,0 km/h (0 Bft) 97,87 %
26.06.2018 21:48 17,5 C 15,6 C 16,1 C 79 % 1022,5 hPa 0,0 l/m 0 min 0 min 8 W/m 0,0 km/h (0 Bft) 97,87 %
26.06.2018 21:50 17,4 C 15,6 C 16,1 C 79 % 1022,5 hPa 0,0 l/m 0 min 0 min 7 W/m 0,0 km/h (0 Bft) 97,87 %
26.06.2018 21:52 17,4 C 15,6 C 15,6 C 79 % 1022,6 hPa 0,0 l/m 0 min 0 min 7 W/m 0,0 km/h (0 Bft) 95,65 %
26.06.2018 21:54 17,3 C 15,6 C 15,6 C 79 % 1022,5 hPa 0,0 l/m 0 min 0 min 5 W/m 0,0 km/h (0 Bft) 95,74 %
26.06.2018 21:56 17,3 C 15,6 C 15,6 C 79 % 1022,6 hPa 0,0 l/m 0 min 0 min 5 W/m 0,0 km/h (0 Bft) 95,74 %
26.06.2018 21:58 17,2 C 15,6 C 15,6 C 79 % 1022,6 hPa 0,0 l/m 0 min 0 min 5 W/m 2,3 km/h (1 Bft) 95,74 %
26.06.2018 22:00 17,2 C 15,6 C 15,6 C 80 % 1022,6 hPa 0,0 l/m 0 min 0 min 5 W/m 0,0 km/h (0 Bft) 95,74 %
26.06.2018 22:02 17,1 C 15,6 C 15,6 C 80 % 1022,6 hPa 0,0 l/m 0 min 0 min 4 W/m 0,0 km/h (0 Bft) 95,74 %
26.06.2018 22:04 17,1 C 15,0 C 15,6 C 80 % 1022,6 hPa 0,0 l/m 0 min 0 min 0 W/m 0,0 km/h (0 Bft) 95,65 %
26.06.2018 22:06 17,0 C 15,0 C 15,6 C 80 % 1022,6 hPa 0,0 l/m 0 min 0 min 0 W/m 0,0 km/h (0 Bft) 95,74 %
26.06.2018 22:08 16,9 C 15,0 C 15,6 C 80 % 1022,7 hPa 0,0 l/m 0 min 0 min 0 W/m 0,0 km/h (0 Bft) 95,74 %
26.06.2018 22:10 16,9 C 15,0 C 15,6 C 80 % 1022,7 hPa 0,0 l/m 0 min 0 min 0 W/m 0,0 km/h (0 Bft) 97,87 %
26.06.2018 22:12 16,9 C 15,0 C 15,6 C 81 % 1022,8 hPa 0,0 l/m 0 min 0 min 0 W/m 0,0 km/h (0 Bft) 95,74 %
26.06.2018 22:14 16,8 C 14,4 C 15,0 C 81 % 1022,8 hPa 0,0 l/m 0 min 0 min 0 W/m 0,0 km/h (0 Bft) 95,65 %
26.06.2018 22:16 16,7 C 14,4 C 15,0 C 81 % 1022,8 hPa 0,0 l/m 0 min 0 min 0 W/m 0,0 km/h (0 Bft) 95,74 %
26.06.2018 22:18 16,7 C 14,4 C 15,0 C 81 % 1022,7 hPa 0,0 l/m 0 min 0 min 0 W/m 0,0 km/h (0 Bft) 95,74 %
26.06.2018 22:20 16,6 C 14,4 C 15,0 C 81 % 1022,7 hPa 0,0 l/m 0 min 0 min 0 W/m 0,0 km/h (0 Bft) 97,87 %
26.06.2018 22:22 16,6 C 14,4 C 15,0 C 82 % 1022,8 hPa 0,0 l/m 0 min 0 min 0 W/m 0,0 km/h (0 Bft) 95,74 %
26.06.2018 22:24 16,5 C 14,4 C 15,0 C 82 % 1022,8 hPa 0,0 l/m 0 min 0 min 0 W/m 0,0 km/h (0 Bft) 97,87 %
26.06.2018 22:26 16,4 C 14,4 C 15,0 C 82 % 1022,8 hPa 0,0 l/m 0 min 0 min 0 W/m 0,0 km/h (0 Bft) 97,87 %
26.06.2018 22:28 16,4 C 14,4 C 15,0 C 82 % 1022,8 hPa 0,0 l/m 0 min 0 min 0 W/m 0,0 km/h (0 Bft) 97,83 %
26.06.2018 22:30 16,3 C 14,4 C 15,0 C 82 % 1022,8 hPa 0,0 l/m 0 min 0 min 0 W/m 0,0 km/h (0 Bft) 95,74 %
26.06.2018 22:32 16,3 C 14,4 C 15,0 C 82 % 1022,8 hPa 0,0 l/m 0 min 0 min 0 W/m 0,0 km/h (0 Bft) 97,87 %
26.06.2018 22:34 16,2 C 13,9 C 15,0 C 83 % 1022,8 hPa 0,0 l/m 0 min 0 min 0 W/m 0,0 km/h (0 Bft) 95,74 %
26.06.2018 22:36 16,2 C 13,9 C 15,0 C 83 % 1022,8 hPa 0,0 l/m 0 min 0 min 0 W/m 0,0 km/h (0 Bft) 97,92 %
26.06.2018 22:38 16,1 C 13,9 C 14,4 C 83 % 1022,8 hPa 0,0 l/m 0 min 0 min 0 W/m 0,0 km/h (0 Bft) 97,83 %
26.06.2018 22:40 16,1 C 13,9 C 14,4 C 83 % 1022,8 hPa 0,0 l/m 0 min 0 min 0 W/m 0,0 km/h (0 Bft) 97,87 %
26.06.2018 22:42 16,0 C 13,9 C 14,4 C 83 % 1022,8 hPa 0,0 l/m 0 min 0 min 0 W/m 0,0 km/h (0 Bft) 97,87 %
26.06.2018 22:44 15,9 C 13,9 C 14,4 C 83 % 1022,8 hPa 0,0 l/m 0 min 0 min 0 W/m 0,0 km/h (0 Bft) 95,74 %
26.06.2018 22:46 15,9 C 13,9 C 13,9 C 83 % 1022,8 hPa 0,0 l/m 0 min 0 min 0 W/m 0,0 km/h (0 Bft) 97,87 %
26.06.2018 22:48 15,8 C 13,9 C 13,9 C 83 % 1022,7 hPa 0,0 l/m 0 min 0 min 0 W/m 0,0 km/h (0 Bft) 97,87 %
26.06.2018 22:50 15,8 C 13,9 C 13,9 C 83 % 1022,8 hPa 0,0 l/m 0 min 0 min 0 W/m 0,0 km/h (0 Bft) 97,83 %
26.06.2018 22:52 15,7 C 13,9 C 13,9 C 84 % 1022,8 hPa 0,0 l/m 0 min 0 min 0 W/m 0,0 km/h (0 Bft) 97,87 %
26.06.2018 22:54 15,7 C 13,9 C 13,9 C 84 % 1022,8 hPa 0,0 l/m 0 min 0 min 0 W/m 0,0 km/h (0 Bft) 97,87 %
26.06.2018 22:56 15,6 C 13,3 C 13,9 C 84 % 1022,8 hPa 0,0 l/m 0 min 0 min 0 W/m 0,0 km/h (0 Bft) 97,87 %
26.06.2018 22:58 15,6 C 13,3 C 13,9 C 84 % 1022,8 hPa 0,0 l/m 0 min 0 min 0 W/m 0,0 km/h (0 Bft) 95,74 %
26.06.2018 23:00 15,6 C 13,9 C 13,9 C 84 % 1022,8 hPa 0,0 l/m 0 min 0 min 0 W/m 0,0 km/h (0 Bft) 95,74 %
26.06.2018 23:02 15,5 C 13,3 C 13,9 C 84 % 1022,9 hPa 0,0 l/m 0 min 0 min 0 W/m 0,0 km/h (0 Bft) 95,65 %
26.06.2018 23:04 15,4 C 13,9 C 13,9 C 84 % 1022,9 hPa 0,0 l/m 0 min 0 min 0 W/m 0,0 km/h (0 Bft) 93,62 %
26.06.2018 23:06 15,4 C 13,9 C 13,9 C 84 % 1022,9 hPa 0,0 l/m 0 min 0 min 0 W/m 0,0 km/h (0 Bft) 91,49 %
26.06.2018 23:08 15,4 C 13,9 C 13,9 C 84 % 1022,8 hPa 0,0 l/m 0 min 0 min 0 W/m 0,0 km/h (0 Bft) 93,62 %
26.06.2018 23:10 15,3 C 13,9 C 13,9 C 84 % 1022,9 hPa 0,0 l/m 0 min 0 min 0 W/m 0,0 km/h (0 Bft) 95,74 %
26.06.2018 23:12 15,3 C 13,9 C 13,9 C 85 % 1023,0 hPa 0,0 l/m 0 min 0 min 0 W/m 0,0 km/h (0 Bft) 95,74 %
26.06.2018 23:14 15,2 C 13,3 C 13,9 C 85 % 1023,0 hPa 0,0 l/m 0 min 0 min 0 W/m 0,0 km/h (0 Bft) 97,83 %
26.06.2018 23:16 15,2 C 13,3 C 13,9 C 85 % 1023,0 hPa 0,0 l/m 0 min 0 min 0 W/m 0,0 km/h (0 Bft) 95,74 %
26.06.2018 23:18 15,2 C 13,3 C 13,9 C 85 % 1023,0 hPa 0,0 l/m 0 min 0 min 0 W/m 0,0 km/h (0 Bft) 97,87 %
26.06.2018 23:20 15,1 C 13,3 C 13,9 C 85 % 1023,1 hPa 0,0 l/m 0 min 0 min 0 W/m 0,0 km/h (0 Bft) 97,87 %
26.06.2018 23:22 15,1 C 13,3 C 13,9 C 85 % 1023,0 hPa 0,0 l/m 0 min 0 min 0 W/m 0,0 km/h (0 Bft) 97,87 %
26.06.2018 23:24 15,1 C 13,3 C 13,9 C 85 % 1023,0 hPa 0,0 l/m 0 min 0 min 0 W/m 0,0 km/h (0 Bft) 95,74 %
26.06.2018 23:26 15,0 C 13,3 C 13,3 C 85 % 1023,0 hPa 0,0 l/m 0 min 0 min 0 W/m 0,0 km/h (0 Bft) 95,65 %
26.06.2018 23:28 15,0 C 13,3 C 13,3 C 85 % 1023,0 hPa 0,0 l/m 0 min 0 min 0 W/m 0,0 km/h (0 Bft) 97,87 %
26.06.2018 23:30 14,9 C 13,3 C 13,3 C 85 % 1023,0 hPa 0,0 l/m 0 min 0 min 0 W/m 0,0 km/h (0 Bft) 97,87 %
26.06.2018 23:32 14,9 C 13,3 C 13,3 C 86 % 1023,0 hPa 0,0 l/m 0 min 0 min 0 W/m 0,0 km/h (0 Bft) 97,87 %
26.06.2018 23:34 14,9 C 13,3 C 13,3 C 86 % 1023,0 hPa 0,0 l/m 0 min 0 min 0 W/m 0,0 km/h (0 Bft) 93,62 %
26.06.2018 23:36 14,8 C 13,3 C 13,3 C 86 % 1023,0 hPa 0,0 l/m 0 min 0 min 0 W/m 0,0 km/h (0 Bft) 93,48 %
26.06.2018 23:38 14,8 C 13,3 C 13,3 C 86 % 1023,0 hPa 0,0 l/m 0 min 0 min 0 W/m 0,0 km/h (0 Bft) 93,62 %
26.06.2018 23:40 14,8 C 13,3 C 13,3 C 86 % 1022,9 hPa 0,0 l/m 0 min 0 min 0 W/m 0,0 km/h (0 Bft) 95,74 %
26.06.2018 23:42 14,7 C 13,3 C 13,3 C 86 % 1023,1 hPa 0,0 l/m 0 min 0 min 0 W/m 0,0 km/h (0 Bft) 95,74 %
26.06.2018 23:44 14,7 C 12,8 C 13,3 C 86 % 1023,1 hPa 0,0 l/m 0 min 0 min 0 W/m 0,0 km/h (0 Bft) 95,74 %
26.06.2018 23:46 14,7 C 12,8 C 13,3 C 86 % 1023,0 hPa 0,0 l/m 0 min 0 min 0 W/m 0,0 km/h (0 Bft) 93,62 %
26.06.2018 23:48 14,6 C 12,8 C 13,3 C 86 % 1023,1 hPa 0,0 l/m 0 min 0 min 0 W/m 0,0 km/h (0 Bft) 95,65 %
26.06.2018 23:50 14,6 C 13,3 C 13,3 C 86 % 1023,0 hPa 0,0 l/m 0 min 0 min 0 W/m 0,0 km/h (0 Bft) 95,74 %
26.06.2018 23:52 14,6 C 12,8 C 13,3 C 86 % 1023,0 hPa 0,0 l/m 0 min 0 min 0 W/m 0,0 km/h (0 Bft) 93,62 %
26.06.2018 23:54 14,5 C 12,8 C 13,3 C 86 % 1023,0 hPa 0,0 l/m 0 min 0 min 0 W/m 0,0 km/h (0 Bft) 95,74 %
26.06.2018 23:56 14,4 C 12,8 C 13,3 C 86 % 1023,0 hPa 0,0 l/m 0 min 0 min 0 W/m 0,0 km/h (0 Bft) 95,74 %
26.06.2018 23:58 14,4 C 12,8 C 13,3 C 86 % 1023,0 hPa 0,0 l/m 0 min 0 min 0 W/m 0,0 km/h (0 Bft) 95,74 %
_ Min-Zeit 05:12 04:28 04:28 17:42 18:50 - - - - 00:14 13:16
Minimum _ 12,0 C 11,1 C 11,7 C 65 % 1022,2 hPa - - - - 0,0 km/h (0 Bft) 91,30 %
_ Max-Zeit 17:36 11:54 18:08 05:34 11:22 00:00 12:08 00:00 14:02 14:24 00:00
Maximum _ 22,4 C 28,3 C 20,6 C 93 % 1023,9 hPa 0,0 l/m 4 min 0 min 1197 W/m 24,8 km/h
W-NW (4 Bft)
100,00 %
Durchschnitt _ 16,6 C 17,0 C 14,9 C 80 % 1023,0 hPa #0,0 l/m #9:52 h #0 min. 450 W/m 6,5 km/h (2 Bft) 97,45 %
© 2018 W. Hausmann